DW4078 Weather Reports


Display with metric or nautical units.
time (UTC)temp
F
wind
direction
speed
MPH
gust
MPH
rain 1hr
in
rain 24hr
in
rain mn
in
humidity
%
barometer
mb
20260903021503 80 120 0.0 1.0 0.00 0.00 0.00 84 1015.3
20260903021404 80 120 0.0 1.0 0.00 0.00 0.00 84 1015.3
20260903021304 80 120 0.0 1.0 0.00 0.00 0.00 84 1015.3
20260903021203 80 120 0.0 1.0 0.00 0.00 0.00 84 1015.2
20260903021104 80 120 0.0 1.0 0.00 0.00 0.00 83 1015.2
20260903021003 80 120 0.0 1.0 0.00 0.00 0.00 83 1015.3
20260903020904 80 120 0.0 1.0 0.00 0.00 0.00 84 1015.2
20260903020803 80 120 0.0 1.0 0.00 0.00 0.00 83 1015.1
20260903020703 80 120 0.0 1.0 0.00 0.00 0.00 83 1015.1
20260903020603 80 120 0.0 1.0 0.00 0.00 0.00 83 1015.2
20260903020524 80 120 0.0 1.0 0.00 0.00 0.00 82 1015.2
20260903020403 80 0 0.0 0.0 0.00 0.00 0.00 83 1015.0
20260903020303 80 0 0.0 0.0 0.00 0.00 0.00 83 1015.1
20260903020224 80 0 0.0 0.0 0.00 0.00 0.00 83 1015.0
20260903020104 80 0 0.0 0.0 0.00 0.00 0.00 82 1015.0
20260903020004 80 0 0.0 0.0 0.00 0.00 0.00 83 1015.1
20260903015903 80 0 0.0 0.0 0.00 0.00 0.00 82 1015.0
20260903015803 80 0 0.0 0.0 0.00 0.00 0.00 83 1015.1
20260903015703 80 0 0.0 0.0 0.00 0.00 0.00 82 1015.1
20260903015626 80 0 0.0 0.0 0.00 0.00 0.00 82 1015.1
20260903015504 81 0 0.0 0.0 0.00 0.00 0.00 82 1014.9
20260903015403 81 119 0.0 1.0 0.00 0.00 0.00 82 1015.1
20260903015325 81 119 0.0 1.0 0.00 0.00 0.00 82 1015.3
20260903015204 81 124 0.0 1.0 0.00 0.00 0.00 82 1015.0
20260903015124 81 124 0.0 1.0 0.00 0.00 0.00 81 1015.0
20260903015004 81 124 0.0 1.0 0.00 0.00 0.00 81 1015.1
20260903014903 81 124 0.0 1.0 0.00 0.00 0.00 82 1015.0
20260903014824 81 124 0.0 1.0 0.00 0.00 0.00 82 1015.0
20260903014724 81 124 0.0 1.0 0.00 0.00 0.00 82 1015.1
20260903014624 81 124 0.0 1.0 0.00 0.00 0.00 82 1015.0
20260903014504 81 124 0.0 1.0 0.00 0.00 0.00 82 1015.1
20260903014403 81 128 0.0 1.0 0.00 0.00 0.00 82 1015.1
20260903014303 81 133 0.0 1.0 0.00 0.00 0.00 81 1015.3
20260903014203 81 131 0.0 1.0 0.00 0.00 0.00 82 1015.0
20260903014103 81 131 0.0 1.0 0.00 0.00 0.00 82 1015.2
20260903014004 81 131 0.0 1.0 0.00 0.00 0.00 81 1015.2
20260903013903 81 131 0.0 1.0 0.00 0.00 0.00 81 1015.2
20260903013803 81 131 0.0 1.0 0.00 0.00 0.00 81 1015.2
20260903013704 81 131 0.0 1.0 0.00 0.00 0.00 81 1015.2
20260903013603 81 131 0.0 1.0 0.00 0.00 0.00 81 1015.2
20260903013503 81 131 0.0 1.0 0.00 0.00 0.00 81 1015.3
20260903013403 80 118 0.0 2.0 0.00 0.00 0.00 81 1015.2
20260903013303 80 118 0.0 2.0 0.00 0.00 0.00 82 1015.2
20260903013203 80 118 0.0 2.0 0.00 0.00 0.00 82 1015.4
20260903013105 80 118 0.0 2.0 0.00 0.00 0.00 82 1015.4
20260903013004 80 118 0.0 2.0 0.00 0.00 0.00 82 1015.2
20260903012924 80 118 0.0 2.0 0.00 0.00 0.00 82 1015.2
20260903012804 81 118 0.0 2.0 0.00 0.00 0.00 81 1015.4
20260903012703 81 118 0.0 2.0 0.00 0.00 0.00 81 1015.3
20260903012604 80 118 0.0 2.0 0.00 0.00 0.00 81 1015.3
20260903012503 80 118 0.0 2.0 0.00 0.00 0.00 81 1015.3
20260903012403 80 121 0.0 1.0 0.00 0.00 0.00 82 1015.3
20260903012306 80 121 0.0 1.0 0.00 0.00 0.00 82 1015.3
20260903012203 80 121 0.0 1.0 0.00 0.00 0.00 81 1015.3
20260903012103 80 121 0.0 1.0 0.00 0.00 0.00 81 1015.2
20260903012003 80 121 0.0 1.0 0.00 0.00 0.00 81 1015.3
20260903011903 80 121 0.0 1.0 0.00 0.00 0.00 82 1015.2
20260903011804 80 121 0.0 1.0 0.00 0.00 0.00 81 1015.3
20260903011703 80 0 0.0 0.0 0.00 0.00 0.00 82 1015.4
20260903011603 80 0 0.0 0.0 0.00 0.00 0.00 82 1015.3
20260903011504 80 0 0.0 0.0 0.00 0.00 0.00 81 1015.3
20260903011425 80 0 0.0 0.0 0.00 0.00 0.00 81 1015.4
20260903011303 80 0 0.0 0.0 0.00 0.00 0.00 81 1015.2
20260903011203 80 0 0.0 0.0 0.00 0.00 0.00 81 1015.5
20260903011104 80 0 0.0 0.0 0.00 0.00 0.00 81 1015.4
20260903011024 80 0 0.0 0.0 0.00 0.00 0.00 81 1015.4
20260903010925 81 0 0.0 0.0 0.00 0.00 0.00 81 1015.5
20260903010803 81 0 0.0 0.0 0.00 0.00 0.00 80 1015.2
20260903010703 81 0 0.0 0.0 0.00 0.00 0.00 80 1015.3
20260903010604 81 0 0.0 0.0 0.00 0.00 0.00 80 1015.4
20260903010504 81 0 0.0 0.0 0.00 0.00 0.00 80 1015.3
20260903010403 81 0 0.0 0.0 0.00 0.00 0.00 79 1015.4
20260903010303 82 0 0.0 0.0 0.00 0.00 0.00 79 1015.2
20260903010204 82 0 0.0 0.0 0.00 0.00 0.00 79 1015.2
20260903010005 82 0 0.0 0.0 0.00 0.00 0.00 77 1015.4
20260903005903 82 0 0.0 0.0 0.00 0.00 0.00 77 1015.3
20260903005803 82 0 0.0 0.0 0.00 0.00 0.00 78 1015.2
20260903005725 82 0 0.0 0.0 0.00 0.00 0.00 77 1015.1
20260903005605 82 0 0.0 0.0 0.00 0.00 0.00 77 1015.2
20260903005503 83 121 0.0 1.0 0.00 0.00 0.00 76 1015.3
20260903005403 83 119 0.0 1.0 0.00 0.00 0.00 76 1015.2
20260903005306 83 120 0.0 1.0 0.00 0.00 0.00 76 1015.3
20260903005203 83 120 0.0 1.0 0.00 0.00 0.00 75 1015.1
20260903005105 83 123 0.0 1.0 0.00 0.00 0.00 75 1015.0
20260903005004 83 123 0.0 1.0 0.00 0.00 0.00 74 1015.1
20260903004903 83 123 0.0 1.0 0.00 0.00 0.00 74 1015.1
20260903004804 83 129 0.0 3.0 0.00 0.00 0.00 74 1015.2
20260903004703 83 129 0.0 3.0 0.00 0.00 0.00 74 1015.0
20260903004603 83 129 0.0 3.0 0.00 0.00 0.00 74 1015.0
20260903004504 83 129 0.0 3.0 0.00 0.00 0.00 74 1015.0
20260903004404 83 130 0.0 3.0 0.00 0.00 0.00 74 1015.2
20260903004324 84 130 0.0 3.0 0.00 0.00 0.00 74 1015.1
20260903004203 84 130 0.0 3.0 0.00 0.00 0.00 73 1015.3
20260903004104 84 131 0.0 3.0 0.00 0.00 0.00 73 1015.2
20260903004004 84 131 0.0 3.0 0.00 0.00 0.00 73 1015.1
20260903003904 83 133 0.0 3.0 0.00 0.00 0.00 72 1015.2
20260903003825 83 135 0.0 2.0 0.00 0.00 0.00 73 1015.1
20260903003703 83 127 0.0 2.0 0.00 0.00 0.00 73 1015.0
20260903003603 83 123 0.0 2.0 0.00 0.00 0.00 74 1015.0
20260903003504 83 0 0.0 0.0 0.00 0.00 0.00 74 1014.9
20260903003403 83 0 0.0 0.0 0.00 0.00 0.00 75 1015.1
20260903003304 83 0 0.0 0.0 0.00 0.00 0.00 76 1015.0
20260903003224 83 0 0.0 0.0 0.00 0.00 0.00 75 1014.9
20260903003103 83 0 0.0 0.0 0.00 0.00 0.00 73 1015.0
20260903003003 83 0 0.0 0.0 0.00 0.00 0.00 73 1015.0
20260903002903 83 0 0.0 0.0 0.00 0.00 0.00 73 1015.0
20260903002804 83 0 0.0 0.0 0.00 0.00 0.00 73 1015.2
20260903002703 84 0 0.0 0.0 0.00 0.00 0.00 73 1015.0
20260903002603 84 131 0.0 1.0 0.00 0.00 0.00 73 1015.0
20260903002502 84 131 0.0 1.0 0.00 0.00 0.00 73 1014.8
20260903002402 84 131 0.0 1.0 0.00 0.00 0.00 73 1015.0
20260903002301 84 131 0.0 1.0 0.00 0.00 0.00 72 1014.9
20260903002201 84 131 0.0 1.0 0.00 0.00 0.00 72 1014.9
20260903002101 84 131 0.0 1.0 0.00 0.00 0.00 72 1014.9
20260903002001 84 131 0.0 1.0 0.00 0.00 0.00 72 1014.9
20260903001901 84 131 0.0 1.0 0.00 0.00 0.00 72 1014.9
20260903001822 84 131 0.0 1.0 0.00 0.00 0.00 72 1014.8
20260903001701 84 131 0.0 1.0 0.00 0.00 0.00 72 1014.8
20260903001623 84 137 0.0 1.0 0.00 0.00 0.00 71 1014.9
20260903001502 85 0 0.0 0.0 0.00 0.00 0.00 72 1015.0
20260903001422 85 0 0.0 0.0 0.00 0.00 0.00 72 1014.9
20260903001302 85 0 0.0 0.0 0.00 0.00 0.00 71 1014.8
20260903001223 85 0 0.0 0.0 0.00 0.00 0.00 72 1014.9
20260903001102 85 0 0.0 0.0 0.00 0.00 0.00 71 1014.7
20260903001002 85 0 0.0 0.0 0.00 0.00 0.00 72 1014.9
20260903000901 85 0 0.0 0.0 0.00 0.00 0.00 71 1014.6
20260903000823 85 0 0.0 0.0 0.00 0.00 0.00 70 1014.6
20260903000701 86 0 0.0 0.0 0.00 0.00 0.00 70 1014.7
20260903000622 86 0 0.0 0.0 0.00 0.00 0.00 69 1014.7
20260903000501 86 0 0.0 0.0 0.00 0.00 0.00 70 1014.5
20260903000402 86 0 0.0 0.0 0.00 0.00 0.00 68 1014.6
20260903000303 86 0 0.0 0.0 0.00 0.00 0.00 68 1014.6
20260903000204 87 0 0.0 0.0 0.00 0.00 0.00 68 1014.7
20260903000001 87 0 0.0 0.0 0.00 0.00 0.00 67 1014.8
20260902235901 87 0 0.0 0.0 0.00 0.00 0.00 67 1014.8
20260902235801 87 140 0.0 1.0 0.00 0.00 0.00 66 1014.7
20260902235702 87 138 0.0 1.0 0.00 0.00 0.00 66 1014.7
20260902235601 87 147 0.0 2.0 0.00 0.00 0.00 66 1014.7
20260902235502 87 144 0.0 2.0 0.00 0.00 0.00 65 1014.7
20260902235401 87 140 0.0 2.0 0.00 0.00 0.00 65 1014.9
20260902235305 87 139 0.0 2.0 0.00 0.00 0.00 65 1014.9
20260902235223 87 138 0.0 2.0 0.00 0.00 0.00 64 1014.8
20260902235122 88 136 0.0 2.0 0.00 0.00 0.00 64 1014.5
20260902235001 88 135 1.0 3.0 0.00 0.00 0.00 64 1014.7
20260902234922 88 141 1.0 4.0 0.00 0.00 0.00 64 1014.6
20260902234801 88 145 1.0 4.0 0.00 0.00 0.00 64 1014.8
20260902234701 88 149 1.0 4.0 0.00 0.00 0.00 63 1014.7
20260902234601 88 148 1.0 4.0 0.00 0.00 0.00 63 1014.7
20260902234522 88 149 1.0 4.0 0.00 0.00 0.00 63 1014.9
20260902234401 88 152 1.0 4.0 0.00 0.00 0.00 62 1014.9
20260902234323 88 151 1.0 4.0 0.00 0.00 0.00 63 1014.7
20260902234201 88 151 1.0 4.0 0.00 0.00 0.00 63 1014.6
20260902234102 89 153 1.0 4.0 0.00 0.00 0.00 62 1014.7
20260902234001 89 155 1.0 4.0 0.00 0.00 0.00 62 1014.7
20260902233901 89 157 1.0 3.0 0.00 0.00 0.00 62 1014.8
20260902233822 89 157 1.0 3.0 0.00 0.00 0.00 62 1014.8
20260902233701 89 155 1.0 3.0 0.00 0.00 0.00 62 1014.8
20260902233622 89 155 1.0 3.0 0.00 0.00 0.00 62 1014.8
20260902233502 89 153 1.0 3.0 0.00 0.00 0.00 62 1014.7
20260902233422 89 157 1.0 3.0 0.00 0.00 0.00 62 1014.9
20260902233302 89 160 1.0 3.0 0.00 0.00 0.00 63 1014.6
20260902233201 89 161 1.0 3.0 0.00 0.00 0.00 62 1014.6
20260902233102 89 161 1.0 3.0 0.00 0.00 0.00 62 1014.7
20260902233002 89 167 1.0 6.0 0.00 0.00 0.00 62 1014.8
20260902232902 89 164 1.0 6.0 0.00 0.00 0.00 62 1014.8
20260902232801 89 165 1.0 6.0 0.00 0.00 0.00 62 1014.6
20260902232723 89 162 1.0 6.0 0.00 0.00 0.00 62 1014.9
20260902232601 89 168 1.0 6.0 0.00 0.00 0.00 62 1014.6
20260902232501 89 163 1.0 6.0 0.00 0.00 0.00 62 1014.8
20260902232401 89 156 1.0 6.0 0.00 0.00 0.00 62 1014.9
20260902232301 89 168 1.0 6.0 0.00 0.00 0.00 62 1014.6
20260902232201 89 180 1.0 6.0 0.00 0.00 0.00 62 1014.7
20260902232101 89 180 1.0 6.0 0.00 0.00 0.00 62 1014.7
20260902232002 89 167 1.0 4.0 0.00 0.00 0.00 62 1014.8
20260902231901 89 164 1.0 4.0 0.00 0.00 0.00 62 1014.7
20260902231802 89 167 1.0 4.0 0.00 0.00 0.00 62 1014.7
20260902231702 89 166 1.0 4.0 0.00 0.00 0.00 62 1014.8
20260902231602 89 164 1.0 4.0 0.00 0.00 0.00 62 1014.8
20260902231501 89 171 1.0 4.0 0.00 0.00 0.00 62 1014.8
20260902231422 89 173 1.0 4.0 0.00 0.00 0.00 61 1015.0
20260902231301 90 161 1.0 4.0 0.00 0.00 0.00 61 1015.0
20260902231201 90 149 1.0 3.0 0.00 0.00 0.00 62 1014.7
20260902231102 90 155 1.0 3.0 0.00 0.00 0.00 62 1014.8
20260902231001 90 160 1.0 3.0 0.00 0.00 0.00 61 1014.9
20260902230902 90 163 1.0 3.0 0.00 0.00 0.00 61 1014.7
20260902230801 90 160 1.0 3.0 0.00 0.00 0.00 60 1014.8
20260902230722 90 160 1.0 3.0 0.00 0.00 0.00 60 1014.8
20260902230601 90 160 1.0 2.0 0.00 0.00 0.00 61 1015.0
20260902230501 90 160 1.0 2.0 0.00 0.00 0.00 61 1014.9
20260902230401 90 164 1.0 3.0 0.00 0.00 0.00 61 1014.7
20260902230302 90 176 1.0 3.0 0.00 0.00 0.00 61 1014.7
20260902230202 90 180 1.0 4.0 0.00 0.00 0.00 61 1014.9
20260902230023 91 177 1.0 4.0 0.00 0.00 0.00 60 1014.7
20260902225922 91 165 1.0 6.0 0.00 0.00 0.00 60 1014.8
20260902225801 91 175 2.0 6.0 0.00 0.00 0.00 60 1014.7
20260902225722 91 175 2.0 6.0 0.00 0.00 0.00 60 1014.7
20260902225601 91 179 2.0 6.0 0.00 0.00 0.00 59 1014.8
20260902225502 91 179 2.0 6.0 0.00 0.00 0.00 59 1014.8
20260902225423 91 181 2.0 6.0 0.00 0.00 0.00 59 1014.7
20260902225301 91 177 2.0 6.0 0.00 0.00 0.00 59 1014.8
20260902225201 91 176 2.0 6.0 0.00 0.00 0.00 58 1014.8
20260902225123 91 179 2.0 6.0 0.00 0.00 0.00 58 1014.8
20260902225001 91 192 2.0 6.0 0.00 0.00 0.00 59 1014.8
20260902224901 91 192 2.0 4.0 0.00 0.00 0.00 58 1015.0
20260902224802 91 191 2.0 4.0 0.00 0.00 0.00 58 1014.9
20260902224701 92 185 2.0 4.0 0.00 0.00 0.00 58 1014.8
20260902224601 92 183 2.0 4.0 0.00 0.00 0.00 58 1015.0
20260902224501 92 179 2.0 4.0 0.00 0.00 0.00 58 1014.8
20260902224402 91 172 1.0 4.0 0.00 0.00 0.00 58 1014.9
20260902224302 91 177 2.0 4.0 0.00 0.00 0.00 58 1014.7
20260902224223 91 181 2.0 4.0 0.00 0.00 0.00 58 1015.0
20260902224122 91 172 2.0 4.0 0.00 0.00 0.00 58 1015.0
20260902224001 91 166 2.0 7.0 0.00 0.00 0.00 58 1014.9
20260902223901 91 168 2.0 7.0 0.00 0.00 0.00 58 1014.8
20260902223802 91 176 2.0 7.0 0.00 0.00 0.00 58 1015.0
20260902223701 91 191 2.0 8.0 0.00 0.00 0.00 58 1014.8
20260902223601 91 196 2.0 8.0 0.00 0.00 0.00 58 1014.9
20260902223503 91 194 2.0 8.0 0.00 0.00 0.00 59 1015.0
20260902223401 91 192 2.0 8.0 0.00 0.00 0.00 59 1014.9
20260902223301 90 195 2.0 8.0 0.00 0.00 0.00 59 1014.9
20260902223202 90 186 3.0 8.0 0.00 0.00 0.00 58 1014.9
20260902223101 91 187 2.0 8.0 0.00 0.00 0.00 59 1014.8
20260902223002 91 181 3.0 8.0 0.00 0.00 0.00 59 1014.8
20260902222901 91 183 3.0 8.0 0.00 0.00 0.00 58 1014.8
20260902222803 91 174 3.0 8.0 0.00 0.00 0.00 59 1014.7
20260902222701 92 179 3.0 8.0 0.00 0.00 0.00 57 1014.8
20260902222622 92 177 3.0 7.0 0.00 0.00 0.00 58 1014.6
20260902222501 92 186 3.0 7.0 0.00 0.00 0.00 57 1014.7
20260902222401 92 188 3.0 7.0 0.00 0.00 0.00 57 1014.7
20260902222305 92 185 3.0 8.0 0.00 0.00 0.00 56 1014.5
20260902222201 92 191 3.0 8.0 0.00 0.00 0.00 56 1014.6
20260902222101 92 192 3.0 8.0 0.00 0.00 0.00 56 1014.7
20260902222001 92 196 3.0 8.0 0.00 0.00 0.00 56 1014.7
20260902221901 92 201 3.0 8.0 0.00 0.00 0.00 57 1014.7
20260902221801 92 202 3.0 8.0 0.00 0.00 0.00 57 1014.7
20260902221701 92 198 3.0 8.0 0.00 0.00 0.00 57 1014.8
20260902221602 92 193 2.0 8.0 0.00 0.00 0.00 57 1014.5
20260902221503 92 189 2.0 8.0 0.00 0.00 0.00 57 1014.7
20260902221401 92 192 2.0 8.0 0.00 0.00 0.00 56 1014.9
20260902221301 92 190 2.0 6.0 0.00 0.00 0.00 57 1014.8
20260902221201 92 184 2.0 6.0 0.00 0.00 0.00 56 1014.5
20260902221101 92 184 2.0 6.0 0.00 0.00 0.00 57 1014.6
20260902221001 92 180 2.0 6.0 0.00 0.00 0.00 57 1014.6
20260902220901 92 167 2.0 4.0 0.00 0.00 0.00 56 1014.5
20260902220822 92 172 2.0 4.0 0.00 0.00 0.00 56 1014.4
20260902220701 92 163 2.0 4.0 0.00 0.00 0.00 57 1014.5
20260902220602 92 187 2.0 7.0 0.00 0.00 0.00 56 1014.5
20260902220501 92 183 2.0 7.0 0.00 0.00 0.00 56 1014.4
20260902220422 92 183 2.0 7.0 0.00 0.00 0.00 56 1014.5
20260902220302 92 185 2.0 7.0 0.00 0.00 0.00 57 1014.4
20260902220202 91 185 2.0 7.0 0.00 0.00 0.00 57 1014.6
20260902220101 91 186 2.0 7.0 0.00 0.00 0.00 58 1014.5
20260902220003 91 184 2.0 7.0 0.00 0.00 0.00 58 1014.5
20260902215901 91 185 2.0 7.0 0.00 0.00 0.00 58 1014.5
20260902215823 91 184 2.0 7.0 0.00 0.00 0.00 58 1014.5
20260902215722 91 188 2.0 7.0 0.00 0.00 0.00 58 1014.5
20260902215601 91 166 2.0 6.0 0.00 0.00 0.00 58 1014.6
20260902215522 91 168 2.0 6.0 0.00 0.00 0.00 58 1014.6
20260902215422 91 163 1.0 6.0 0.00 0.00 0.00 58 1014.5
20260902215306 91 153 2.0 6.0 0.00 0.00 0.00 57 1014.5
20260902215202 92 154 1.0 7.0 0.00 0.00 0.00 58 1014.6
20260902215122 92 157 1.0 7.0 0.00 0.00 0.00 57 1014.6
20260902215002 92 151 1.0 7.0 0.00 0.00 0.00 57 1014.4
20260902214901 92 144 1.0 7.0 0.00 0.00 0.00 57 1014.6
20260902214801 92 168 1.0 10.0 0.00 0.00 0.00 57 1014.6
20260902214701 92 172 2.0 10.0 0.00 0.00 0.00 57 1014.6
20260902214602 92 171 2.0 10.0 0.00 0.00 0.00 57 1014.6
20260902214522 92 176 2.0 10.0 0.00 0.00 0.00 57 1014.7
20260902214401 92 193 2.0 10.0 0.00 0.00 0.00 57 1014.5
20260902214322 92 200 2.0 10.0 0.00 0.00 0.00 57 1014.6
20260902214201 92 201 2.0 10.0 0.00 0.00 0.00 57 1014.6
20260902214101 92 206 2.0 10.0 0.00 0.00 0.00 57 1014.6
20260902214002 92 208 3.0 10.0 0.00 0.00 0.00 57 1014.6
20260902213902 92 212 3.0 10.0 0.00 0.00 0.00 56 1014.7
20260902213802 92 201 2.0 10.0 0.00 0.00 0.00 56 1014.5
20260902213702 92 192 2.0 7.0 0.00 0.00 0.00 56 1014.7
20260902213601 92 195 2.0 7.0 0.00 0.00 0.00 57 1014.6
20260902213524 92 201 2.0 7.0 0.00 0.00 0.00 56 1014.7
20260902213401 92 203 2.0 7.0 0.00 0.00 0.00 56 1014.8
20260902213301 92 198 3.0 11.0 0.00 0.00 0.00 56 1014.7
20260902213201 92 200 3.0 11.0 0.00 0.00 0.00 57 1014.7
20260902213101 92 194 3.0 11.0 0.00 0.00 0.00 57 1014.8
20260902213001 92 191 3.0 11.0 0.00 0.00 0.00 56 1014.7
20260902212902 92 193 3.0 11.0 0.00 0.00 0.00 56 1014.8
20260902212802 92 205 4.0 11.0 0.00 0.00 0.00 56 1014.8
20260902212701 92 203 4.0 11.0 0.00 0.00 0.00 56 1014.8
20260902212622 93 205 3.0 11.0 0.00 0.00 0.00 56 1014.5
20260902212501 93 193 3.0 11.0 0.00 0.00 0.00 55 1014.9
20260902212402 93 188 3.0 11.0 0.00 0.00 0.00 54 1014.9
20260902212301 94 187 3.0 9.0 0.00 0.00 0.00 54 1014.7
20260902212201 94 185 3.0 8.0 0.00 0.00 0.00 53 1014.9
20260902212101 94 184 3.0 8.0 0.00 0.00 0.00 54 1014.8
20260902212001 95 193 3.0 8.0 0.00 0.00 0.00 55 1014.7
20260902211903 95 190 3.0 8.0 0.00 0.00 0.00 53 1014.8
20260902211802 95 173 2.0 6.0 0.00 0.00 0.00 52 1014.7
20260902211701 95 183 3.0 6.0 0.00 0.00 0.00 52 1014.8
20260902211601 95 188 3.0 6.0 0.00 0.00 0.00 53 1014.9
20260902211523 95 192 3.0 6.0 0.00 0.00 0.00 52 1014.8
20260902211402 95 188 2.0 6.0 0.00 0.00 0.00 53 1014.8
20260902211302 94 182 3.0 6.0 0.00 0.00 0.00 53 1014.9
20260902211202 94 186 3.0 8.0 0.00 0.00 0.00 55 1014.9
20260902211102 94 189 3.0 8.0 0.00 0.00 0.00 55 1015.1
20260902211001 94 196 3.0 8.0 0.00 0.00 0.00 54 1014.9
20260902210901 94 204 3.0 8.0 0.00 0.00 0.00 55 1014.9
20260902210823 94 205 3.0 8.0 0.00 0.00 0.00 55 1014.8
20260902210701 94 207 4.0 13.0 0.00 0.00 0.00 54 1015.0
20260902210601 94 206 4.0 13.0 0.00 0.00 0.00 55 1015.1
20260902210522 94 205 4.0 13.0 0.00 0.00 0.00 55 1014.9
20260902210402 94 207 4.0 13.0 0.00 0.00 0.00 55 1015.0
20260902210301 93 209 4.0 13.0 0.00 0.00 0.00 55 1015.1
20260902210201 93 214 4.0 13.0 0.00 0.00 0.00 57 1015.1
20260902210001 93 215 4.0 13.0 0.00 0.00 0.00 57 1015.0
20260902205902 94 214 3.0 13.0 0.00 0.00 0.00 56 1015.2
20260902205801 94 223 3.0 13.0 0.00 0.00 0.00 56 1015.1
20260902205701 95 219 3.0 9.0 0.00 0.00 0.00 57 1015.1
20260902205601 94 222 3.0 9.0 0.00 0.00 0.00 56 1015.1
20260902205523 94 227 3.0 9.0 0.00 0.00 0.00 56 1015.1
20260902205402 94 227 3.0 9.0 0.00 0.00 0.00 55 1015.1
20260902205322 94 226 3.0 9.0 0.00 0.00 0.00 55 1015.1
20260902205201 94 224 3.0 9.0 0.00 0.00 0.00 54 1015.0
20260902205122 94 229 4.0 9.0 0.00 0.00 0.00 54 1015.0
20260902205022 94 224 4.0 9.0 0.00 0.00 0.00 54 1014.9
20260902204902 94 208 3.0 8.0 0.00 0.00 0.00 52 1014.8
20260902204822 94 215 3.0 8.0 0.00 0.00 0.00 53 1015.2
20260902204701 94 207 3.0 8.0 0.00 0.00 0.00 53 1015.2
20260902204623 94 217 4.0 8.0 0.00 0.00 0.00 54 1015.2
20260902204501 94 217 3.0 8.0 0.00 0.00 0.00 53 1015.3
20260902204401 94 213 3.0 8.0 0.00 0.00 0.00 52 1015.1
20260902204302 94 215 3.0 8.0 0.00 0.00 0.00 53 1015.3
20260902204202 94 218 3.0 8.0 0.00 0.00 0.00 53 1015.2
20260902204123 94 211 3.0 8.0 0.00 0.00 0.00 54 1015.2
20260902204002 94 211 3.0 8.0 0.00 0.00 0.00 54 1015.0
20260902203902 94 216 3.0 8.0 0.00 0.00 0.00 54 1015.3
20260902203802 94 205 3.0 8.0 0.00 0.00 0.00 55 1015.2
20260902203702 94 200 3.0 8.0 0.00 0.00 0.00 54 1015.2
20260902203601 94 190 3.0 8.0 0.00 0.00 0.00 54 1015.1
20260902203524 94 193 3.0 8.0 0.00 0.00 0.00 54 1015.3
20260902203401 93 202 3.0 8.0 0.00 0.00 0.00 54 1015.3
20260902203323 93 206 4.0 9.0 0.00 0.00 0.00 54 1015.4
20260902203201 93 205 4.0 9.0 0.00 0.00 0.00 55 1015.5
20260902203101 92 196 4.0 9.0 0.00 0.00 0.00 54 1015.3
20260902203002 92 201 4.0 9.0 0.00 0.00 0.00 55 1015.4
20260902202901 92 204 4.0 9.0 0.00 0.00 0.00 54 1015.5
20260902202801 92 216 4.0 9.0 0.00 0.00 0.00 57 1015.4
20260902202702 93 221 4.0 9.0 0.00 0.00 0.00 55 1015.3
20260902202601 93 222 4.0 9.0 0.00 0.00 0.00 55 1015.3
20260902202522 93 220 3.0 9.0 0.00 0.00 0.00 55 1015.4
20260902202401 93 223 3.0 9.0 0.00 0.00 0.00 55 1015.3
20260902202301 92 214 3.0 8.0 0.00 0.00 0.00 57 1015.3
20260902202201 92 217 3.0 8.0 0.00 0.00 0.00 57 1015.3
20260902202101 92 234 3.0 8.0 0.00 0.00 0.00 57 1015.3
20260902202002 92 226 2.0 8.0 0.00 0.00 0.00 57 1015.2
20260902201901 92 222 3.0 7.0 0.00 0.00 0.00 57 1015.4
20260902201801 92 214 2.0 6.0 0.00 0.00 0.00 58 1015.2
20260902201703 92 220 2.0 6.0 0.00 0.00 0.00 58 1015.5
20260902201602 92 201 2.0 6.0 0.00 0.00 0.00 57 1015.4
20260902201502 93 225 2.0 8.0 0.00 0.00 0.00 57 1015.4
20260902201401 93 222 3.0 8.0 0.00 0.00 0.00 57 1015.5
20260902201302 93 225 3.0 8.0 0.00 0.00 0.00 57 1015.4
20260902201201 93 223 3.0 9.0 0.00 0.00 0.00 56 1015.4
20260902201102 93 218 3.0 9.0 0.00 0.00 0.00 56 1015.4
20260902201001 93 225 4.0 9.0 0.00 0.00 0.00 55 1015.5
20260902200901 93 227 4.0 9.0 0.00 0.00 0.00 56 1015.6
20260902200822 93 226 4.0 9.0 0.00 0.00 0.00 56 1015.4
20260902200701 93 219 4.0 9.0 0.00 0.00 0.00 56 1015.4
20260902200601 93 222 5.0 11.0 0.00 0.00 0.00 55 1015.5
20260902200522 93 224 5.0 11.0 0.00 0.00 0.00 54 1015.6
20260902200401 93 224 4.0 11.0 0.00 0.00 0.00 56 1015.6
20260902200301 92 226 4.0 11.0 0.00 0.00 0.00 55 1015.5
20260902200201 92 226 4.0 11.0 0.00 0.00 0.00 56 1015.5
20260902200001 92 229 4.0 11.0 0.00 0.00 0.00 56 1015.5
20260902195901 92 228 4.0 11.0 0.00 0.00 0.00 56 1015.6
20260902195801 92 226 4.0 11.0 0.00 0.00 0.00 56 1015.6
20260902195701 93 229 4.0 11.0 0.00 0.00 0.00 56 1015.5
20260902195624 93 229 4.0 11.0 0.00 0.00 0.00 54 1015.6
20260902195502 93 222 3.0 10.0 0.00 0.00 0.00 55 1015.7
20260902195401 94 222 3.0 10.0 0.00 0.00 0.00 54 1015.6
20260902195301 94 210 3.0 10.0 0.00 0.00 0.00 54 1015.5
20260902195202 94 214 3.0 10.0 0.00 0.00 0.00 54 1015.6
20260902195102 95 206 3.0 10.0 0.00 0.00 0.00 53 1015.5
20260902195022 95 223 3.0 10.0 0.00 0.00 0.00 52 1015.5
20260902194901 94 224 3.0 10.0 0.00 0.00 0.00 53 1015.5
20260902194801 94 229 3.0 10.0 0.00 0.00 0.00 54 1015.6
20260902194702 94 232 3.0 10.0 0.00 0.00 0.00 54 1015.6
20260902194601 93 237 3.0 10.0 0.00 0.00 0.00 55 1015.6
20260902194502 92 242 3.0 10.0 0.00 0.00 0.00 56 1015.6
20260902194402 92 232 3.0 10.0 0.00 0.00 0.00 56 1015.5
20260902194301 92 243 3.0 10.0 0.00 0.00 0.00 57 1015.7
20260902194201 92 237 3.0 10.0 0.00 0.00 0.00 57 1015.7
20260902194101 92 248 3.0 10.0 0.00 0.00 0.00 56 1015.9
20260902194002 92 245 3.0 8.0 0.00 0.00 0.00 55 1015.9
20260902193901 91 247 3.0 8.0 0.00 0.00 0.00 56 1015.6
20260902193801 91 246 3.0 10.0 0.00 0.00 0.00 57 1015.7
20260902193723 91 238 3.0 10.0 0.00 0.00 0.00 56 1015.6
20260902193601 91 235 3.0 10.0 0.00 0.00 0.00 57 1015.6
20260902193501 91 232 3.0 10.0 0.00 0.00 0.00 58 1015.7
20260902193402 91 234 3.0 10.0 0.00 0.00 0.00 56 1015.5
20260902193322 91 226 3.0 10.0 0.00 0.00 0.00 57 1016.0
20260902193202 92 215 3.0 10.0 0.00 0.00 0.00 57 1015.7
20260902193101 92 160 3.0 10.0 0.00 0.00 0.00 56 1015.7
20260902193002 93 173 3.0 10.0 0.00 0.00 0.00 56 1016.0
20260902192901 93 161 2.0 10.0 0.00 0.00 0.00 55 1015.6
20260902192801 93 167 2.0 10.0 0.00 0.00 0.00 55 1016.0
20260902192722 93 168 2.0 9.0 0.00 0.00 0.00 56 1015.9
20260902192601 92 177 3.0 9.0 0.00 0.00 0.00 56 1015.9
20260902192502 92 199 3.0 9.0 0.00 0.00 0.00 57 1015.9
20260902192402 91 204 3.0 9.0 0.00 0.00 0.00 58 1016.0
20260902192301 91 216 3.0 9.0 0.00 0.00 0.00 58 1015.9
20260902192202 91 199 3.0 8.0 0.00 0.00 0.00 58 1015.9
20260902192101 91 215 3.0 7.0 0.00 0.00 0.00 57 1015.9
20260902192002 91 218 3.0 7.0 0.00 0.00 0.00 58 1016.0
20260902191922 91 222 3.0 7.0 0.00 0.00 0.00 58 1015.7
20260902191823 92 222 3.0 7.0 0.00 0.00 0.00 57 1015.9
20260902191722 92 173 3.0 7.0 0.00 0.00 0.00 57 1016.2
20260902191601 92 191 3.0 7.0 0.00 0.00 0.00 57 1016.1
20260902191501 92 182 3.0 7.0 0.00 0.00 0.00 57 1016.0
20260902191401 93 184 3.0 7.0 0.00 0.00 0.00 56 1016.0
20260902191302 93 178 3.0 7.0 0.00 0.00 0.00 55 1016.1
20260902191201 93 187 3.0 7.0 0.00 0.00 0.00 55 1015.9
20260902191101 93 196 3.0 7.0 0.00 0.00 0.00 55 1016.0
20260902191002 93 200 3.0 7.0 0.00 0.00 0.00 56 1015.9
20260902190902 92 206 3.0 7.0 0.00 0.00 0.00 55 1016.1
20260902190824 92 219 4.0 8.0 0.00 0.00 0.00 55 1015.9
20260902190702 93 239 4.0 8.0 0.00 0.00 0.00 55 1016.1
20260902190603 93 239 3.0 8.0 0.00 0.00 0.00 55 1015.9
20260902190501 93 253 3.0 8.0 0.00 0.00 0.00 55 1016.0
20260902190422 92 253 3.0 8.0 0.00 0.00 0.00 55 1016.2
20260902190302 92 265 4.0 8.0 0.00 0.00 0.00 55 1016.0
20260902190201 92 272 4.0 8.0 0.00 0.00 0.00 56 1016.0
20260902190001 92 256 4.0 8.0 0.00 0.00 0.00 56 1015.9
20260902185902 92 250 4.0 9.0 0.00 0.00 0.00 54 1016.1
20260902185802 93 241 4.0 9.0 0.00 0.00 0.00 54 1016.0
20260902185701 93 238 4.0 9.0 0.00 0.00 0.00 54 1016.1
20260902185601 94 233 4.0 9.0 0.00 0.00 0.00 53 1016.2
20260902185502 94 232 4.0 9.0 0.00 0.00 0.00 52 1016.1
20260902185401 94 231 4.0 9.0 0.00 0.00 0.00 52 1016.2
20260902185301 94 231 3.0 9.0 0.00 0.00 0.00 52 1016.1
20260902185222 94 234 3.0 9.0 0.00 0.00 0.00 51 1016.2
20260902185102 94 225 3.0 9.0 0.00 0.00 0.00 52 1016.2
20260902185002 94 226 3.0 9.0 0.00 0.00 0.00 52 1016.2
20260902184923 94 217 3.0 9.0 0.00 0.00 0.00 51 1016.2
20260902184802 94 203 3.0 9.0 0.00 0.00 0.00 51 1016.2
20260902184701 94 193 3.0 9.0 0.00 0.00 0.00 52 1016.3
20260902184622 94 189 3.0 9.0 0.00 0.00 0.00 51 1016.3
20260902184501 93 202 3.0 10.0 0.00 0.00 0.00 51 1016.2
20260902184403 93 197 3.0 10.0 0.00 0.00 0.00 55 1016.2
20260902184302 93 196 3.0 10.0 0.00 0.00 0.00 54 1016.3
20260902184224 93 196 3.0 10.0 0.00 0.00 0.00 54 1016.3
20260902184101 94 201 3.0 10.0 0.00 0.00 0.00 53 1016.4
20260902184002 94 198 3.0 10.0 0.00 0.00 0.00 53 1016.3
20260902183902 94 203 3.0 10.0 0.00 0.00 0.00 53 1016.3
20260902183801 94 204 3.0 10.0 0.00 0.00 0.00 53 1016.1
20260902183724 94 208 3.0 10.0 0.00 0.00 0.00 52 1016.3
20260902183601 95 221 3.0 10.0 0.00 0.00 0.00 52 1016.1
20260902183522 95 206 2.0 7.0 0.00 0.00 0.00 51 1016.0
20260902183402 95 200 2.0 9.0 0.00 0.00 0.00 52 1016.3
20260902183303 94 215 2.0 9.0 0.00 0.00 0.00 51 1016.1
20260902182306 94 225 3.0 9.0 0.00 0.00 0.00 53 1016.5
20260902182224 94 228 3.0 9.0 0.00 0.00 0.00 53 1016.5
20260902182102 94 233 3.0 9.0 0.00 0.00 0.00 52 1016.5
20260902182004 94 239 3.0 9.0 0.00 0.00 0.00 52 1016.5
20260902181902 93 235 3.0 7.0 0.00 0.00 0.00 52 1016.4
20260902181802 93 239 3.0 7.0 0.00 0.00 0.00 53 1016.6
20260902181724 93 244 3.0 7.0 0.00 0.00 0.00 53 1016.7
20260902181623 92 242 3.0 8.0 0.00 0.00 0.00 53 1016.6
20260902181523 92 243 3.0 8.0 0.00 0.00 0.00 52 1016.7
20260902181402 92 242 3.0 8.0 0.00 0.00 0.00 53 1016.7
20260902181302 92 244 3.0 8.0 0.00 0.00 0.00 55 1016.4
20260902181204 92 242 3.0 8.0 0.00 0.00 0.00 54 1016.6
20260902181102 92 237 3.0 8.0 0.00 0.00 0.00 55 1016.6
20260902181004 92 227 3.0 8.0 0.00 0.00 0.00 55 1016.4
20260902180902 92 227 3.0 8.0 0.00 0.00 0.00 54 1016.5
20260902180803 93 222 3.0 8.0 0.00 0.00 0.00 53 1016.4
20260902180703 94 217 2.0 8.0 0.00 0.00 0.00 52 1016.3
20260902180605 94 214 2.0 8.0 0.00 0.00 0.00 52 1016.5
20260902180525 95 207 2.0 8.0 0.00 0.00 0.00 52 1016.5
20260902180425 95 205 2.0 7.0 0.00 0.00 0.00 51 1016.7
20260902180303 95 207 3.0 8.0 0.00 0.00 0.00 49 1016.6
20260902180202 95 204 3.0 8.0 0.00 0.00 0.00 51 1016.4
20260902180104 95 204 3.0 8.0 0.00 0.00 0.00 50 1016.6
20260902180025 94 205 3.0 8.0 0.00 0.00 0.00 51 1016.6
20260902175903 93 212 3.0 8.0 0.00 0.00 0.00 51 1016.5
20260902175803 93 210 4.0 8.0 0.00 0.00 0.00 52 1016.6
20260902175724 93 213 4.0 8.0 0.00 0.00 0.00 51 1016.6
20260902175624 93 210 4.0 8.0 0.00 0.00 0.00 51 1016.7
20260902175502 93 208 4.0 8.0 0.00 0.00 0.00 51 1016.7
20260902175424 93 208 4.0 8.0 0.00 0.00 0.00 51 1016.7
20260902175307 94 208 3.0 8.0 0.00 0.00 0.00 51 1016.7
20260902175204 94 209 3.0 8.0 0.00 0.00 0.00 51 1016.7
20260902175103 94 208 3.0 8.0 0.00 0.00 0.00 50 1016.7
20260902175003 94 201 3.0 8.0 0.00 0.00 0.00 50 1016.8
20260902174923 94 188 2.0 8.0 0.00 0.00 0.00 49 1016.8
20260902174824 94 203 2.0 7.0 0.00 0.00 0.00 50 1016.8
20260902174703 94 225 2.0 7.0 0.00 0.00 0.00 51 1016.7
20260902174603 94 242 2.0 7.0 0.00 0.00 0.00 51 1016.9
20260902174502 94 253 2.0 7.0 0.00 0.00 0.00 51 1016.7
20260902174425 94 245 2.0 7.0 0.00 0.00 0.00 53 1016.8
20260902174323 94 222 3.0 9.0 0.00 0.00 0.00 52 1016.9
20260902174224 94 245 3.0 9.0 0.00 0.00 0.00 52 1016.9
20260902174125 93 251 3.0 9.0 0.00 0.00 0.00 54 1017.0
20260902174003 93 257 3.0 9.0 0.00 0.00 0.00 52 1017.0
20260902173904 93 248 4.0 9.0 0.00 0.00 0.00 52 1017.0
20260902173803 93 229 4.0 9.0 0.00 0.00 0.00 50 1017.0
20260902173702 93 200 4.0 9.0 0.00 0.00 0.00 51 1017.0
20260902173603 93 188 4.0 9.0 0.00 0.00 0.00 51 1016.9
20260902173504 92 191 4.0 9.0 0.00 0.00 0.00 53 1017.0
20260902173402 92 191 3.0 9.0 0.00 0.00 0.00 53 1017.0
20260902173302 92 195 3.0 8.0 0.00 0.00 0.00 54 1017.0
20260902173203 93 176 3.0 8.0 0.00 0.00 0.00 55 1017.0
20260902173123 93 168 3.0 8.0 0.00 0.00 0.00 53 1016.9
20260902173002 93 161 2.0 8.0 0.00 0.00 0.00 56 1017.1
20260902172902 94 152 2.0 8.0 0.00 0.00 0.00 56 1017.0
20260902172802 94 181 3.0 11.0 0.00 0.00 0.00 57 1017.0
20260902172703 94 189 2.0 11.0 0.00 0.00 0.00 57 1017.2
20260902172602 94 187 2.0 11.0 0.00 0.00 0.00 59 1017.1
20260902172503 93 183 2.0 11.0 0.00 0.00 0.00 57 1017.0
20260902172423 93 183 2.0 11.0 0.00 0.00 0.00 56 1017.1
20260902172307 93 179 2.0 11.0 0.00 0.00 0.00 59 1017.1
20260902172202 92 197 3.0 11.0 0.00 0.00 0.00 60 1017.1
20260902172103 92 235 3.0 11.0 0.00 0.00 0.00 60 1017.1
20260902172004 92 248 3.0 11.0 0.00 0.00 0.00 60 1017.2
20260902171924 92 259 3.0 11.0 0.00 0.00 0.00 60 1017.1
20260902171802 92 250 2.0 8.0 0.00 0.00 0.00 61 1017.2
20260902171703 92 263 2.0 8.0 0.00 0.00 0.00 57 1017.1
20260902171603 92 252 2.0 8.0 0.00 0.00 0.00 58 1017.2
20260902171503 91 242 3.0 8.0 0.00 0.00 0.00 58 1017.2
20260902171402 91 239 3.0 8.0 0.00 0.00 0.00 58 1017.1
20260902171302 91 242 3.0 8.0 0.00 0.00 0.00 59 1017.0
20260902171202 91 224 2.0 8.0 0.00 0.00 0.00 59 1017.3
20260902171102 91 194 2.0 7.0 0.00 0.00 0.00 58 1017.3
20260902171023 91 200 2.0 7.0 0.00 0.00 0.00 59 1017.2
20260902170902 91 202 3.0 7.0 0.00 0.00 0.00 58 1017.3
20260902170802 91 188 2.0 6.0 0.00 0.00 0.00 60 1017.3
20260902170703 92 188 2.0 6.0 0.00 0.00 0.00 62 1017.2
20260902170603 92 207 2.0 6.0 0.00 0.00 0.00 59 1017.3
20260902170502 91 207 2.0 6.0 0.00 0.00 0.00 59 1017.3
20260902170402 91 203 2.0 6.0 0.00 0.00 0.00 58 1017.3
20260902170303 90 202 2.0 6.0 0.00 0.00 0.00 58 1017.4
20260902170204 90 200 2.0 6.0 0.00 0.00 0.00 60 1017.4
20260902170123 90 198 2.0 6.0 0.00 0.00 0.00 60 1017.2
20260902170004 90 209 2.0 6.0 0.00 0.00 0.00 61 1017.4
20260902165902 90 205 2.0 6.0 0.00 0.00 0.00 62 1017.2
20260902165803 90 214 2.0 6.0 0.00 0.00 0.00 62 1017.2
20260902165703 90 199 2.0 6.0 0.00 0.00 0.00 62 1017.2
20260902165603 90 165 2.0 6.0 0.00 0.00 0.00 61 1017.4
20260902165504 90 169 2.0 6.0 0.00 0.00 0.00 65 1017.4
20260902165402 90 173 2.0 6.0 0.00 0.00 0.00 62 1017.3
20260902165325 89 172 2.0 6.0 0.00 0.00 0.00 62 1017.3
20260902165203 89 157 2.0 6.0 0.00 0.00 0.00 64 1017.4
20260902165125 89 176 2.0 6.0 0.00 0.00 0.00 64 1017.4
20260902165003 89 147 2.0 4.0 0.00 0.00 0.00 64 1017.3
20260902164903 89 136 1.0 4.0 0.00 0.00 0.00 64 1017.5
20260902164803 89 129 1.0 3.0 0.00 0.00 0.00 65 1017.5
20260902164702 89 115 1.0 3.0 0.00 0.00 0.00 65 1017.5
20260902164602 89 124 1.0 3.0 0.00 0.00 0.00 64 1017.6
20260902164502 89 126 1.0 3.0 0.00 0.00 0.00 66 1017.4
20260902164403 89 130 1.0 3.0 0.00 0.00 0.00 66 1017.5
20260902164323 90 136 1.0 3.0 0.00 0.00 0.00 66 1017.4
20260902164202 90 161 1.0 7.0 0.00 0.00 0.00 64 1017.4
20260902164102 90 179 2.0 7.0 0.00 0.00 0.00 65 1017.6
20260902164002 90 183 2.0 7.0 0.00 0.00 0.00 63 1017.6
20260902163904 90 179 2.0 7.0 0.00 0.00 0.00 62 1017.4
20260902163803 90 188 2.0 7.0 0.00 0.00 0.00 63 1017.5
20260902163724 90 191 2.0 7.0 0.00 0.00 0.00 63 1017.4
20260902163602 90 191 2.0 7.0 0.00 0.00 0.00 62 1017.3
20260902163502 89 187 2.0 7.0 0.00 0.00 0.00 63 1017.5
20260902163403 89 188 2.0 7.0 0.00 0.00 0.00 64 1017.6
20260902163302 90 194 2.0 7.0 0.00 0.00 0.00 63 1017.4
20260902163202 90 180 2.0 7.0 0.00 0.00 0.00 63 1017.4
20260902163102 90 184 2.0 6.0 0.00 0.00 0.00 63 1017.5
20260902163002 90 184 2.0 6.0 0.00 0.00 0.00 62 1017.5
20260902162903 90 186 2.0 6.0 0.00 0.00 0.00 63 1017.5
20260902162802 90 171 2.0 6.0 0.00 0.00 0.00 62 1017.7
20260902162702 89 174 2.0 6.0 0.00 0.00 0.00 63 1017.5
20260902162602 89 200 2.0 6.0 0.00 0.00 0.00 64 1017.5
20260902162502 89 223 2.0 6.0 0.00 0.00 0.00 65 1017.5
20260902162402 89 216 3.0 6.0 0.00 0.00 0.00 67 1017.5
20260902162324 89 210 3.0 6.0 0.00 0.00 0.00 66 1017.5
20260902162202 89 210 3.0 6.0 0.00 0.00 0.00 65 1017.6
20260902162102 89 206 3.0 7.0 0.00 0.00 0.00 65 1017.5
20260902162002 88 211 3.0 7.0 0.00 0.00 0.00 65 1017.5
20260902161923 88 213 3.0 7.0 0.00 0.00 0.00 65 1017.6
20260902161824 88 214 3.0 7.0 0.00 0.00 0.00 64 1017.6
20260902161703 88 213 3.0 7.0 0.00 0.00 0.00 65 1017.5
20260902161602 88 208 3.0 7.0 0.00 0.00 0.00 65 1017.6
20260902161502 88 205 3.0 7.0 0.00 0.00 0.00 65 1017.7
20260902161403 88 205 3.0 7.0 0.00 0.00 0.00 65 1017.5
20260902161302 89 207 3.0 7.0 0.00 0.00 0.00 65 1017.5
20260902161203 89 211 3.0 7.0 0.00 0.00 0.00 65 1017.8
20260902161102 89 207 3.0 6.0 0.00 0.00 0.00 64 1017.7
20260902161002 89 201 2.0 6.0 0.00 0.00 0.00 65 1017.6
20260902160902 90 203 2.0 6.0 0.00 0.00 0.00 64 1017.5
20260902160803 89 213 2.0 6.0 0.00 0.00 0.00 64 1017.7
20260902160703 89 230 3.0 6.0 0.00 0.00 0.00 64 1017.7
20260902160623 89 233 3.0 6.0 0.00 0.00 0.00 64 1017.6
20260902160502 88 236 3.0 6.0 0.00 0.00 0.00 66 1017.6
20260902160402 88 237 3.0 6.0 0.00 0.00 0.00 66 1017.7
20260902160302 88 232 3.0 6.0 0.00 0.00 0.00 66 1017.5
20260902160223 88 239 3.0 6.0 0.00 0.00 0.00 65 1017.8
20260902160005 88 239 2.0 6.0 0.00 0.00 0.00 67 1017.6
20260902155902 88 233 2.0 6.0 0.00 0.00 0.00 67 1017.7
20260902155802 88 227 2.0 7.0 0.00 0.00 0.00 66 1017.7
20260902155703 88 220 2.0 7.0 0.00 0.00 0.00 66 1017.8
20260902155603 88 231 2.0 7.0 0.00 0.00 0.00 68 1017.9
20260902155523 88 237 2.0 7.0 0.00 0.00 0.00 67 1017.8
20260902155423 88 229 2.0 7.0 0.00 0.00 0.00 67 1017.7
20260902155306 88 246 2.0 7.0 0.00 0.00 0.00 67 1017.8
20260902155202 88 201 2.0 7.0 0.00 0.00 0.00 67 1017.8
20260902155102 88 257 2.0 7.0 0.00 0.00 0.00 68 1018.0
20260902155002 88 268 2.0 7.0 0.00 0.00 0.00 67 1017.7
20260902154923 88 274 2.0 7.0 0.00 0.00 0.00 67 1017.7
20260902154802 89 272 2.0 7.0 0.00 0.00 0.00 66 1017.9
20260902154723 89 276 2.0 4.0 0.00 0.00 0.00 66 1017.8
20260902154602 88 253 2.0 4.0 0.00 0.00 0.00 67 1017.9
20260902154503 88 286 2.0 4.0 0.00 0.00 0.00 66 1017.9
20260902154402 88 266 2.0 4.0 0.00 0.00 0.00 66 1017.9
20260902154302 88 252 2.0 4.0 0.00 0.00 0.00 65 1017.9
20260902154202 88 231 2.0 4.0 0.00 0.00 0.00 66 1017.8
20260902154102 88 205 2.0 4.0 0.00 0.00 0.00 65 1017.9
20260902154024 88 192 2.0 4.0 0.00 0.00 0.00 66 1017.7
20260902153923 88 192 2.0 4.0 0.00 0.00 0.00 67 1017.9
20260902153803 88 190 2.0 4.0 0.00 0.00 0.00 68 1018.0
20260902153703 88 189 2.0 4.0 0.00 0.00 0.00 67 1017.8
20260902153603 89 204 2.0 4.0 0.00 0.00 0.00 67 1017.8
20260902153502 89 193 1.0 4.0 0.00 0.00 0.00 67 1017.9
20260902153403 89 196 1.0 4.0 0.00 0.00 0.00 66 1017.8
20260902153302 89 195 1.0 6.0 0.00 0.00 0.00 65 1017.8
20260902153202 88 210 2.0 6.0 0.00 0.00 0.00 66 1017.9
20260902153102 88 223 2.0 6.0 0.00 0.00 0.00 67 1018.0
20260902153002 88 234 2.0 6.0 0.00 0.00 0.00 67 1017.9
20260902152903 88 238 2.0 6.0 0.00 0.00 0.00 66 1018.0
20260902152802 88 247 2.0 6.0 0.00 0.00 0.00 67 1018.0
20260902152702 88 251 2.0 6.0 0.00 0.00 0.00 66 1017.8
20260902152602 88 93 2.0 6.0 0.00 0.00 0.00 68 1017.9
20260902152502 88 342 2.0 6.0 0.00 0.00 0.00 69 1017.9
20260902152403 88 324 2.0 6.0 0.00 0.00 0.00 68 1017.9
20260902152307 88 343 2.0 6.0 0.00 0.00 0.00 67 1017.9
20260902152223 88 338 2.0 6.0 0.00 0.00 0.00 68 1017.8
20260902152102 88 237 2.0 6.0 0.00 0.00 0.00 66 1017.9
20260902152003 88 194 2.0 6.0 0.00 0.00 0.00 69 1018.0
20260902151924 88 183 2.0 6.0 0.00 0.00 0.00 69 1017.9
20260902151803 87 302 2.0 6.0 0.00 0.00 0.00 68 1017.8
20260902151702 87 285 2.0 6.0 0.00 0.00 0.00 68 1018.0
20260902151602 88 281 2.0 6.0 0.00 0.00 0.00 67 1017.9
20260902151502 88 295 2.0 6.0 0.00 0.00 0.00 68 1017.9
20260902151402 87 288 3.0 6.0 0.00 0.00 0.00 69 1017.8
20260902151325 87 270 3.0 6.0 0.00 0.00 0.00 69 1017.9
20260902151202 87 264 3.0 6.0 0.00 0.00 0.00 68 1017.9
20260902151102 87 267 3.0 6.0 0.00 0.00 0.00 68 1018.0
20260902151002 87 273 3.0 6.0 0.00 0.00 0.00 69 1017.9
20260902150903 87 267 3.0 6.0 0.00 0.00 0.00 69 1017.9
20260902150803 87 247 3.0 6.0 0.00 0.00 0.00 70 1018.0
20260902150702 87 240 3.0 6.0 0.00 0.00 0.00 69 1017.9
20260902150602 87 233 3.0 6.0 0.00 0.00 0.00 69 1017.8
20260902150503 87 234 3.0 8.0 0.00 0.00 0.00 68 1017.7
20260902150402 88 235 3.0 8.0 0.00 0.00 0.00 68 1017.8
20260902150323 88 234 3.0 8.0 0.00 0.00 0.00 67 1017.9
20260902150202 88 233 2.0 8.0 0.00 0.00 0.00 68 1017.8
20260902150123 87 228 2.0 8.0 0.00 0.00 0.00 69 1017.9
20260902150024 87 227 2.0 8.0 0.00 0.00 0.00 71 1017.8
20260902145902 87 229 2.0 8.0 0.00 0.00 0.00 69 1017.8
20260902145803 87 223 2.0 8.0 0.00 0.00 0.00 69 1018.0
20260902145723 87 224 2.0 8.0 0.00 0.00 0.00 70 1017.9
20260902145602 87 214 2.0 8.0 0.00 0.00 0.00 70 1017.8
20260902145502 87 197 2.0 8.0 0.00 0.00 0.00 69 1017.8
20260902145424 87 195 1.0 6.0 0.00 0.00 0.00 71 1017.8
20260902145305 87 192 1.0 4.0 0.00 0.00 0.00 72 1018.1
20260902145202 87 186 1.0 4.0 0.00 0.00 0.00 72 1018.1
20260902145102 87 192 1.0 4.0 0.00 0.00 0.00 71 1017.9
20260902145002 87 189 1.0 6.0 0.00 0.00 0.00 72 1017.9
20260902144924 87 199 2.0 6.0 0.00 0.00 0.00 71 1017.8
20260902144803 86 203 1.0 6.0 0.00 0.00 0.00 72 1017.7
20260902144702 86 200 1.0 6.0 0.00 0.00 0.00 74 1017.9
20260902144602 86 196 1.0 6.0 0.00 0.00 0.00 73 1017.9
20260902144503 86 194 1.0 6.0 0.00 0.00 0.00 72 1017.9
20260902144402 86 188 1.0 6.0 0.00 0.00 0.00 74 1017.9
20260902144302 86 188 1.0 6.0 0.00 0.00 0.00 73 1017.9
20260902144202 86 195 1.0 6.0 0.00 0.00 0.00 75 1017.7
20260902144123 86 192 1.0 6.0 0.00 0.00 0.00 74 1017.7
20260902144002 86 176 1.0 6.0 0.00 0.00 0.00 73 1017.7
20260902143902 86 162 1.0 4.0 0.00 0.00 0.00 73 1017.7
20260902143802 86 164 1.0 4.0 0.00 0.00 0.00 74 1017.8
20260902143703 86 166 1.0 4.0 0.00 0.00 0.00 75 1017.7
20260902143602 86 165 1.0 4.0 0.00 0.00 0.00 75 1017.6
20260902143523 85 170 1.0 4.0 0.00 0.00 0.00 74 1017.8
20260902143402 85 166 1.0 4.0 0.00 0.00 0.00 74 1017.7
20260902143303 85 161 1.0 4.0 0.00 0.00 0.00 75 1017.7
20260902143202 85 158 1.0 4.0 0.00 0.00 0.00 75 1017.5
20260902143102 85 158 1.0 4.0 0.00 0.00 0.00 74 1017.6
20260902143002 85 157 1.0 4.0 0.00 0.00 0.00 76 1017.8
20260902142902 85 155 1.0 3.0 0.00 0.00 0.00 76 1017.8
20260902142802 85 153 1.0 3.0 0.00 0.00 0.00 76 1017.5
20260902142704 85 154 1.0 3.0 0.00 0.00 0.00 76 1017.6
20260902142623 85 154 1.0 3.0 0.00 0.00 0.00 76 1017.5
20260902142502 85 153 1.0 3.0 0.00 0.00 0.00 76 1017.6
20260902142402 85 157 1.0 3.0 0.00 0.00 0.00 75 1017.6
20260902142306 85 158 1.0 3.0 0.00 0.00 0.00 77 1017.5
20260902142223 85 155 1.0 3.0 0.00 0.00 0.00 77 1017.5
20260902142103 84 154 1.0 3.0 0.00 0.00 0.00 76 1017.5
20260902142023 84 154 1.0 2.0 0.00 0.00 0.00 78 1017.5
20260902141903 84 156 1.0 2.0 0.00 0.00 0.00 77 1017.4
20260902141802 84 157 1.0 2.0 0.00 0.00 0.00 77 1017.6
20260902141724 84 155 1.0 2.0 0.00 0.00 0.00 78 1017.5
20260902141603 84 156 1.0 2.0 0.00 0.00 0.00 78 1017.5
20260902141502 84 157 1.0 2.0 0.00 0.00 0.00 77 1017.5
20260902141403 84 154 1.0 4.0 0.00 0.00 0.00 79 1017.6
20260902141302 84 153 1.0 4.0 0.00 0.00 0.00 78 1017.4
20260902141203 84 150 1.0 4.0 0.00 0.00 0.00 78 1017.6
20260902141102 84 155 1.0 4.0 0.00 0.00 0.00 78 1017.6
20260902141002 84 153 1.0 4.0 0.00 0.00 0.00 78 1017.6
20260902140903 84 153 1.0 4.0 0.00 0.00 0.00 79 1017.6
20260902140803 83 156 1.0 4.0 0.00 0.00 0.00 79 1017.6
20260902140702 83 160 1.0 4.0 0.00 0.00 0.00 79 1017.6
20260902140623 83 159 1.0 4.0 0.00 0.00 0.00 79 1017.5
20260902140503 83 153 1.0 4.0 0.00 0.00 0.00 79 1017.5
20260902140402 83 152 1.0 3.0 0.00 0.00 0.00 80 1017.6
20260902140302 83 155 1.0 3.0 0.00 0.00 0.00 80 1017.4
20260902140202 83 157 1.0 3.0 0.00 0.00 0.00 80 1017.6
20260902140123 83 156 1.0 3.0 0.00 0.00 0.00 80 1017.5
20260902140002 83 160 1.0 3.0 0.00 0.00 0.00 80 1017.5
20260902135902 83 159 1.0 4.0 0.00 0.00 0.00 80 1017.3
20260902135802 83 158 1.0 4.0 0.00 0.00 0.00 80 1017.5
20260902135703 83 154 1.0 4.0 0.00 0.00 0.00 80 1017.4
20260902135623 83 152 1.0 4.0 0.00 0.00 0.00 80 1017.4
20260902135524 83 150 1.0 4.0 0.00 0.00 0.00 81 1017.7
20260902135404 82 151 1.0 4.0 0.00 0.00 0.00 80 1017.3
20260902135306 82 145 1.0 4.0 0.00 0.00 0.00 81 1017.3
20260902135223 82 145 1.0 4.0 0.00 0.00 0.00 82 1017.5
20260902135102 82 146 1.0 4.0 0.00 0.00 0.00 82 1017.5
20260902135003 82 143 1.0 4.0 0.00 0.00 0.00 82 1017.5
20260902134924 82 143 1.0 3.0 0.00 0.00 0.00 82 1017.3
20260902134803 82 141 1.0 3.0 0.00 0.00 0.00 83 1017.3
20260902134723 82 142 1.0 4.0 0.00 0.00 0.00 83 1017.6
20260902134602 82 146 1.0 4.0 0.00 0.00 0.00 82 1017.4
20260902134503 82 147 1.0 4.0 0.00 0.00 0.00 83 1017.5
20260902134424 82 146 1.0 4.0 0.00 0.00 0.00 83 1017.3
20260902134302 82 149 1.0 4.0 0.00 0.00 0.00 83 1017.4
20260902134202 82 143 1.0 4.0 0.00 0.00 0.00 83 1017.5
20260902134103 82 144 1.0 4.0 0.00 0.00 0.00 83 1017.5
20260902134002 81 142 1.0 4.0 0.00 0.00 0.00 83 1017.4
20260902133903 81 143 1.0 4.0 0.00 0.00 0.00 83 1017.3
20260902133803 81 142 1.0 4.0 0.00 0.00 0.00 83 1017.7
20260902133703 81 140 1.0 4.0 0.00 0.00 0.00 83 1017.6
20260902133602 81 140 1.0 4.0 0.00 0.00 0.00 84 1017.5
20260902133503 81 139 1.0 4.0 0.00 0.00 0.00 84 1017.4
20260902133403 81 148 1.0 4.0 0.00 0.00 0.00 84 1017.5
20260902133303 81 150 1.0 4.0 0.00 0.00 0.00 84 1017.5
20260902133203 81 152 1.0 4.0 0.00 0.00 0.00 84 1017.6
20260902133123 81 148 1.0 4.0 0.00 0.00 0.00 84 1017.6
20260902133003 81 149 1.0 4.0 0.00 0.00 0.00 85 1017.5
20260902132903 80 147 1.0 4.0 0.00 0.00 0.00 84 1017.5
20260902132802 80 143 1.0 4.0 0.00 0.00 0.00 85 1017.5
20260902132702 80 142 2.0 4.0 0.00 0.00 0.00 85 1017.5
20260902132603 80 143 2.0 7.0 0.00 0.00 0.00 85 1017.5
20260902132502 80 143 2.0 7.0 0.00 0.00 0.00 85 1017.3
20260902132402 80 138 2.0 7.0 0.00 0.00 0.00 86 1017.5
20260902132306 80 138 2.0 7.0 0.00 0.00 0.00 86 1017.6
20260902132203 80 137 2.0 7.0 0.00 0.00 0.00 86 1017.5
20260902132102 80 138 3.0 7.0 0.00 0.00 0.00 86 1017.4
20260902132002 79 138 3.0 7.0 0.00 0.00 0.00 86 1017.6
20260902131902 79 137 3.0 7.0 0.00 0.00 0.00 86 1017.3
20260902131802 79 138 2.0 7.0 0.00 0.00 0.00 86 1017.4
20260902131723 79 138 2.0 7.0 0.00 0.00 0.00 86 1017.5
20260902131602 79 133 2.0 4.0 0.00 0.00 0.00 87 1017.3
20260902131503 79 131 2.0 4.0 0.00 0.00 0.00 87 1017.5
20260902131402 79 130 2.0 4.0 0.00 0.00 0.00 86 1017.3
20260902131303 79 128 1.0 4.0 0.00 0.00 0.00 86 1017.4
20260902131203 79 130 1.0 4.0 0.00 0.00 0.00 87 1017.4
20260902131103 79 130 1.0 4.0 0.00 0.00 0.00 87 1017.5
20260902131002 79 129 1.0 4.0 0.00 0.00 0.00 86 1017.6
20260902130903 79 130 1.0 4.0 0.00 0.00 0.00 87 1017.6
20260902130802 79 131 1.0 4.0 0.00 0.00 0.00 87 1017.7
20260902130702 79 129 1.0 4.0 0.00 0.00 0.00 87 1017.5
20260902130623 79 129 1.0 4.0 0.00 0.00 0.00 87 1017.6
20260902130523 79 131 1.0 4.0 0.00 0.00 0.00 88 1017.6
20260902130402 78 130 2.0 4.0 0.00 0.00 0.00 88 1017.6
20260902130303 78 130 2.0 4.0 0.00 0.00 0.00 88 1017.6
20260902130202 78 130 2.0 4.0 0.00 0.00 0.00 88 1017.6
20260902130002 78 127 2.0 4.0 0.00 0.00 0.00 88 1017.6
20260902125923 78 125 2.0 4.0 0.00 0.00 0.00 89 1017.6
20260902125803 78 124 2.0 4.0 0.00 0.00 0.00 89 1017.4
20260902125723 78 125 2.0 4.0 0.00 0.00 0.00 89 1017.5
20260902125602 78 128 2.0 4.0 0.00 0.00 0.00 89 1017.4
20260902125502 78 127 2.0 4.0 0.00 0.00 0.00 89 1017.4
20260902125402 78 126 1.0 3.0 0.00 0.00 0.00 89 1017.7
20260902125305 78 126 1.0 3.0 0.00 0.00 0.00 89 1017.5
20260902125203 78 127 1.0 3.0 0.00 0.00 0.00 89 1017.3
20260902125102 77 129 1.0 3.0 0.00 0.00 0.00 89 1017.5
20260902125002 77 130 2.0 6.0 0.00 0.00 0.00 89 1017.7
20260902124902 77 130 2.0 6.0 0.00 0.00 0.00 89 1017.5
20260902124824 77 131 2.0 6.0 0.00 0.00 0.00 89 1017.4
20260902124702 77 131 2.0 6.0 0.00 0.00 0.00 89 1017.5
20260902124603 77 130 2.0 6.0 0.00 0.00 0.00 89 1017.5
20260902124502 77 131 1.0 6.0 0.00 0.00 0.00 90 1017.5
20260902124402 77 132 1.0 6.0 0.00 0.00 0.00 90 1017.4
20260902124302 77 131 1.0 6.0 0.00 0.00 0.00 90 1017.7
20260902124203 77 130 2.0 6.0 0.00 0.00 0.00 90 1017.5
20260902124102 77 128 1.0 6.0 0.00 0.00 0.00 90 1017.5
20260902124002 76 126 1.0 4.0 0.00 0.00 0.00 90 1017.4
20260902123903 76 125 1.0 3.0 0.00 0.00 0.00 91 1017.7
20260902123803 76 126 1.0 3.0 0.00 0.00 0.00 90 1017.5
20260902123703 76 123 1.0 3.0 0.00 0.00 0.00 91 1017.5
20260902123625 76 123 1.0 3.0 0.00 0.00 0.00 91 1017.5
20260902123503 76 123 1.0 3.0 0.00 0.00 0.00 91 1017.5
20260902123403 76 123 1.0 3.0 0.00 0.00 0.00 91 1017.4
20260902123303 76 123 1.0 3.0 0.00 0.00 0.00 91 1017.4
20260902123203 76 123 1.0 2.0 0.00 0.00 0.00 91 1017.5
20260902123102 76 123 1.0 2.0 0.00 0.00 0.00 91 1017.4
20260902123002 76 124 1.0 3.0 0.00 0.00 0.00 91 1017.4
20260902122902 76 123 1.0 3.0 0.00 0.00 0.00 91 1017.4
20260902122824 76 122 1.0 3.0 0.00 0.00 0.00 91 1017.4
20260902122702 76 124 1.0 3.0 0.00 0.00 0.00 91 1017.6
20260902122603 76 123 1.0 3.0 0.00 0.00 0.00 91 1017.3
20260902122502 76 123 1.0 3.0 0.00 0.00 0.00 92 1017.5
20260902122402 75 123 1.0 3.0 0.00 0.00 0.00 92 1017.4
20260902122305 75 123 1.0 3.0 0.00 0.00 0.00 92 1017.3
20260902122203 75 123 1.0 3.0 0.00 0.00 0.00 92 1017.3
20260902122102 75 125 1.0 3.0 0.00 0.00 0.00 92 1017.3
20260902122002 75 126 1.0 3.0 0.00 0.00 0.00 92 1017.5
20260902121903 75 126 1.0 3.0 0.00 0.00 0.00 92 1017.2
20260902121802 75 126 1.0 3.0 0.00 0.00 0.00 92 1017.3
20260902121702 75 125 1.0 3.0 0.00 0.00 0.00 92 1017.3
20260902121602 75 126 1.0 3.0 0.00 0.00 0.00 92 1017.3
20260902121503 75 126 1.0 3.0 0.00 0.00 0.00 93 1017.3
20260902121402 75 127 1.0 3.0 0.00 0.00 0.00 93 1017.1
20260902121323 75 127 1.0 3.0 0.00 0.00 0.00 93 1017.3
20260902121202 75 127 0.0 3.0 0.00 0.00 0.00 93 1017.6
20260902121103 74 124 0.0 2.0 0.00 0.00 0.00 93 1017.1
20260902121003 74 122 0.0 1.0 0.00 0.00 0.00 93 1017.4
20260902120902 74 122 0.0 1.0 0.00 0.00 0.00 93 1017.4
20260902120802 74 121 0.0 1.0 0.00 0.00 0.00 94 1017.2
20260902120702 74 119 0.0 1.0 0.00 0.00 0.00 94 1017.3
20260902120602 74 118 0.0 1.0 0.00 0.00 0.00 94 1017.4
20260902120502 74 120 0.0 2.0 0.00 0.00 0.00 94 1017.4
20260902120402 74 121 0.0 2.0 0.00 0.00 0.00 94 1017.6
20260902120302 74 120 0.0 2.0 0.00 0.00 0.00 94 1017.3
20260902120202 74 120 0.0 2.0 0.00 0.00 0.00 94 1017.4
20260902120002 74 120 0.0 2.0 0.00 0.00 0.00 94 1017.5
20260902115924 74 120 0.0 2.0 0.00 0.00 0.00 94 1017.3
20260902115803 74 120 0.0 2.0 0.00 0.00 0.00 94 1017.3
20260902115702 74 120 0.0 2.0 0.00 0.00 0.00 94 1017.5
20260902115603 74 121 0.0 2.0 0.00 0.00 0.00 94 1017.4
20260902115502 74 119 0.0 2.0 0.00 0.00 0.00 95 1017.3
20260902115402 74 118 0.0 2.0 0.00 0.00 0.00 95 1017.5
20260902115307 74 118 0.0 2.0 0.00 0.00 0.00 95 1017.3
20260902115202 74 116 0.0 2.0 0.00 0.00 0.00 95 1017.3
20260902115102 74 115 0.0 2.0 0.00 0.00 0.00 95 1017.3
20260902115002 74 114 0.0 2.0 0.00 0.00 0.00 94 1017.2
20260902114903 74 114 0.0 2.0 0.00 0.00 0.00 94 1017.1
20260902114802 74 114 0.0 2.0 0.00 0.00 0.00 94 1017.2
20260902114702 74 114 0.0 2.0 0.00 0.00 0.00 95 1017.1
20260902114623 74 114 0.0 2.0 0.00 0.00 0.00 95 1017.2
20260902114502 74 113 0.0 1.0 0.00 0.00 0.00 95 1017.2
20260902114403 74 110 0.0 1.0 0.00 0.00 0.00 95 1017.2
20260902114302 74 112 0.0 1.0 0.00 0.00 0.00 95 1017.1
20260902114203 74 116 0.0 1.0 0.00 0.00 0.00 95 1017.0
20260902114103 74 119 0.0 1.0 0.00 0.00 0.00 95 1017.1
20260902114004 74 119 0.0 1.0 0.00 0.00 0.00 95 1017.0
20260902113902 74 119 0.0 1.0 0.00 0.00 0.00 95 1016.9
20260902113803 74 119 0.0 1.0 0.00 0.00 0.00 95 1016.9
20260902113702 74 119 0.0 1.0 0.00 0.00 0.00 95 1016.8
20260902113623 74 119 0.0 1.0 0.00 0.00 0.00 95 1016.8
20260902113502 74 120 0.0 2.0 0.00 0.00 0.00 95 1016.9
20260902113403 74 122 0.0 2.0 0.00 0.00 0.00 95 1016.8
20260902113303 74 122 0.0 2.0 0.00 0.00 0.00 95 1016.8
20260902113203 74 124 0.0 2.0 0.00 0.00 0.00 95 1016.9
20260902113102 74 124 0.0 2.0 0.00 0.00 0.00 95 1016.8
20260902113002 74 123 1.0 2.0 0.00 0.00 0.00 95 1016.9
20260902112923 74 123 1.0 2.0 0.00 0.00 0.00 95 1016.8
20260902112823 74 123 1.0 2.0 0.00 0.00 0.00 94 1016.9
20260902112702 74 123 1.0 2.0 0.00 0.00 0.00 95 1016.6
20260902112624 74 126 1.0 2.0 0.00 0.00 0.00 95 1016.9
20260902112502 74 127 1.0 2.0 0.00 0.00 0.00 95 1016.7
20260902112402 74 126 1.0 2.0 0.00 0.00 0.00 95 1016.8
20260902112305 74 126 1.0 2.0 0.00 0.00 0.00 95 1016.9
20260902112202 74 124 0.0 2.0 0.00 0.00 0.00 95 1017.0
20260902112102 73 124 0.0 2.0 0.00 0.00 0.00 95 1016.8
20260902112002 73 126 0.0 2.0 0.00 0.00 0.00 95 1016.8
20260902111902 74 125 0.0 2.0 0.00 0.00 0.00 95 1016.8
20260902111803 74 124 0.0 2.0 0.00 0.00 0.00 95 1016.8
20260902111704 74 124 0.0 2.0 0.00 0.00 0.00 95 1016.8
20260902111602 74 118 0.0 2.0 0.00 0.00 0.00 95 1016.7
20260902111502 74 118 0.0 2.0 0.00 0.00 0.00 95 1016.8
20260902111403 74 117 0.0 2.0 0.00 0.00 0.00 95 1016.5
20260902111302 74 119 0.0 2.0 0.00 0.00 0.00 95 1016.6
20260902111202 74 118 0.0 2.0 0.00 0.00 0.00 95 1016.6
20260902111102 74 120 0.0 2.0 0.00 0.00 0.00 95 1016.7
20260902111003 74 120 0.0 2.0 0.00 0.00 0.00 95 1016.6
20260902110903 74 119 0.0 2.0 0.00 0.00 0.00 95 1016.8
20260902110802 74 117 0.0 2.0 0.00 0.00 0.00 95 1016.7
20260902110703 74 117 0.0 2.0 0.00 0.00 0.00 95 1016.6
20260902110602 74 115 0.0 2.0 0.00 0.00 0.00 95 1016.5
20260902110504 74 116 0.0 2.0 0.00 0.00 0.00 95 1017.0
20260902110402 74 115 0.0 2.0 0.00 0.00 0.00 95 1016.8
20260902110303 74 115 0.0 2.0 0.00 0.00 0.00 95 1016.8
20260902110202 74 115 0.0 2.0 0.00 0.00 0.00 95 1016.8
20260902110005 74 113 0.0 2.0 0.00 0.00 0.00 95 1016.6
20260902105902 74 113 0.0 2.0 0.00 0.00 0.00 95 1016.8
20260902105802 74 114 0.0 2.0 0.00 0.00 0.00 95 1016.8
20260902105703 74 115 0.0 2.0 0.00 0.00 0.00 95 1016.8
20260902105624 74 118 0.0 2.0 0.00 0.00 0.00 95 1016.7
20260902105523 74 117 0.0 2.0 0.00 0.00 0.00 95 1016.7
20260902105423 74 115 0.0 2.0 0.00 0.00 0.00 95 1016.8
20260902105306 74 114 0.0 2.0 0.00 0.00 0.00 95 1016.7
20260902105203 73 117 0.0 2.0 0.00 0.00 0.00 95 1016.8
20260902105103 73 116 0.0 2.0 0.00 0.00 0.00 95 1016.6
20260902105023 73 117 0.0 2.0 0.00 0.00 0.00 95 1016.8
20260902104902 73 115 0.0 2.0 0.00 0.00 0.00 95 1016.8
20260902104802 73 116 0.0 2.0 0.00 0.00 0.00 95 1016.7
20260902104702 73 116 0.0 2.0 0.00 0.00 0.00 95 1016.7
20260902104602 73 114 0.0 2.0 0.00 0.00 0.00 95 1016.7
20260902104502 73 117 0.0 2.0 0.00 0.00 0.00 95 1016.6
20260902104402 73 119 0.0 2.0 0.00 0.00 0.00 95 1016.6
20260902104323 73 123 0.0 3.0 0.00 0.00 0.00 95 1016.7
20260902104203 73 127 0.0 4.0 0.00 0.00 0.00 95 1016.7
20260902104102 73 126 0.0 4.0 0.00 0.00 0.00 95 1016.7
20260902104003 74 126 0.0 4.0 0.00 0.00 0.00 95 1016.5
20260902103923 74 129 0.0 4.0 0.00 0.00 0.00 95 1016.5
20260902103803 74 131 0.0 4.0 0.00 0.00 0.00 95 1016.6
20260902103703 74 131 0.0 4.0 0.00 0.00 0.00 95 1016.6
20260902103623 74 131 0.0 4.0 0.00 0.00 0.00 95 1016.6
20260902103503 74 128 0.0 4.0 0.00 0.00 0.00 95 1016.6
20260902103423 74 128 0.0 4.0 0.00 0.00 0.00 95 1016.6
20260902103302 74 123 0.0 3.0 0.00 0.00 0.00 95 1016.5
20260902103223 74 123 0.0 3.0 0.00 0.00 0.00 95 1016.4
20260902103102 74 123 0.0 3.0 0.00 0.00 0.00 95 1016.7
20260902103003 74 123 0.0 3.0 0.00 0.00 0.00 95 1016.7
20260902102903 74 124 0.0 3.0 0.00 0.00 0.00 95 1016.6
20260902102802 74 124 0.0 3.0 0.00 0.00 0.00 95 1016.7
20260902102703 74 124 0.0 3.0 0.00 0.00 0.00 95 1016.6
20260902102602 74 122 0.0 1.0 0.00 0.00 0.00 95 1016.7
20260902102502 74 124 0.0 2.0 0.00 0.00 0.00 95 1016.7
20260902102402 74 127 0.0 2.0 0.00 0.00 0.00 95 1016.8
20260902102307 74 126 0.0 2.0 0.00 0.00 0.00 95 1016.6
20260902102203 74 126 0.0 2.0 0.00 0.00 0.00 95 1016.6
20260902102123 74 127 0.0 2.0 0.00 0.00 0.00 95 1016.7
20260902102024 74 127 0.0 2.0 0.00 0.00 0.00 95 1016.6
20260902101902 74 127 0.0 2.0 0.00 0.00 0.00 95 1016.7
20260902101802 74 125 0.0 2.0 0.00 0.00 0.00 95 1016.7
20260902101703 74 125 0.0 2.0 0.00 0.00 0.00 95 1016.7
20260902101602 74 125 0.0 2.0 0.00 0.00 0.00 95 1016.7
20260902101503 74 124 0.0 2.0 0.00 0.00 0.00 95 1016.5
20260902101402 74 120 0.0 2.0 0.00 0.00 0.00 95 1016.5
20260902101324 74 120 0.0 2.0 0.00 0.00 0.00 95 1016.6
20260902101223 74 122 0.0 2.0 0.00 0.00 0.00 95 1016.5
20260902101102 74 124 0.0 2.0 0.00 0.00 0.00 95 1016.6
20260902101003 74 123 0.0 2.0 0.00 0.00 0.00 95 1016.4
20260902100902 74 125 0.0 2.0 0.00 0.00 0.00 95 1016.5
20260902100802 74 127 0.0 2.0 0.00 0.00 0.00 95 1016.6
20260902100702 74 127 0.0 2.0 0.00 0.00 0.00 95 1016.3
20260902100604 74 126 0.0 2.0 0.00 0.00 0.00 95 1016.6
20260902100502 74 133 1.0 3.0 0.00 0.00 0.00 95 1016.5
20260902100403 74 131 1.0 3.0 0.00 0.00 0.00 95 1016.6
20260902100302 74 130 1.0 3.0 0.00 0.00 0.00 95 1016.7
20260902100202 74 133 1.0 3.0 0.00 0.00 0.00 95 1016.5
20260902100023 74 135 1.0 3.0 0.00 0.00 0.00 95 1016.6
20260902095903 74 134 1.0 3.0 0.00 0.00 0.00 95 1016.5
20260902095803 74 132 1.0 3.0 0.00 0.00 0.00 95 1016.6
20260902095724 74 132 1.0 3.0 0.00 0.00 0.00 95 1016.6
20260902095602 74 132 1.0 3.0 0.00 0.00 0.00 95 1016.7
20260902095503 74 128 1.0 3.0 0.00 0.00 0.00 95 1016.7
20260902095402 74 134 1.0 3.0 0.00 0.00 0.00 95 1016.5
20260902095306 74 133 1.0 3.0 0.00 0.00 0.00 95 1016.6
20260902095203 74 131 1.0 3.0 0.00 0.00 0.00 95 1016.7
20260902095102 74 128 1.0 3.0 0.00 0.00 0.00 95 1016.6
20260902095002 74 127 1.0 3.0 0.00 0.00 0.00 95 1016.6
20260902094902 74 126 1.0 3.0 0.00 0.00 0.00 95 1016.6
20260902094802 74 126 1.0 3.0 0.00 0.00 0.00 95 1016.5
20260902094702 74 127 1.0 3.0 0.00 0.00 0.00 95 1016.6
20260902094602 74 124 1.0 3.0 0.00 0.00 0.00 95 1016.7
20260902094503 74 125 1.0 3.0 0.00 0.00 0.00 95 1016.7
20260902094402 74 124 1.0 3.0 0.00 0.00 0.00 95 1016.6
20260902094302 74 126 1.0 3.0 0.00 0.00 0.00 95 1016.5
20260902094202 74 127 1.0 3.0 0.00 0.00 0.00 95 1016.7
20260902094103 74 127 1.0 3.0 0.00 0.00 0.00 95 1016.6
20260902094002 74 127 1.0 3.0 0.00 0.00 0.00 95 1016.7
20260902093902 74 129 1.0 3.0 0.00 0.00 0.00 95 1016.6
20260902093802 74 130 1.0 3.0 0.00 0.00 0.00 95 1016.6
20260902093702 74 130 1.0 3.0 0.00 0.00 0.00 95 1016.6
20260902093602 74 131 1.0 3.0 0.00 0.00 0.00 95 1016.7
20260902093502 74 133 1.0 3.0 0.00 0.00 0.00 95 1016.7
20260902093402 74 129 1.0 3.0 0.00 0.00 0.00 95 1016.6
20260902093303 74 129 0.0 3.0 0.00 0.00 0.00 95 1016.7
20260902093202 74 126 0.0 2.0 0.00 0.00 0.00 95 1016.7
20260902093102 74 128 0.0 2.0 0.00 0.00 0.00 95 1016.7
20260902093003 74 129 0.0 2.0 0.00 0.00 0.00 95 1016.7
20260902092903 74 125 0.0 2.0 0.00 0.00 0.00 95 1016.8
20260902092823 74 127 0.0 3.0 0.00 0.00 0.00 95 1016.8
20260902092702 74 127 0.0 3.0 0.00 0.00 0.00 95 1016.8
20260902092602 74 127 0.0 3.0 0.00 0.00 0.00 95 1016.8
20260902092523 74 127 0.0 3.0 0.00 0.00 0.00 95 1016.5
20260902092403 74 124 0.0 3.0 0.00 0.00 0.00 95 1016.8
20260902092305 74 125 1.0 3.0 0.00 0.00 0.00 95 1016.8
20260902092202 74 125 1.0 3.0 0.00 0.00 0.00 95 1016.7
20260902092103 74 127 1.0 3.0 0.00 0.00 0.00 95 1016.8
20260902092023 74 127 1.0 3.0 0.00 0.00 0.00 95 1016.8
20260902091925 74 126 1.0 3.0 0.00 0.00 0.00 95 1016.7
20260902091803 74 125 1.0 3.0 0.00 0.00 0.00 95 1016.6
20260902091703 74 125 1.0 3.0 0.00 0.00 0.00 95 1016.8
20260902091623 74 125 1.0 3.0 0.00 0.00 0.00 95 1016.8
20260902091502 74 124 1.0 3.0 0.00 0.00 0.00 95 1016.8
20260902091424 74 123 1.0 3.0 0.00 0.00 0.00 95 1016.7
20260902091303 74 123 1.0 3.0 0.00 0.00 0.00 95 1016.6
20260902091202 74 123 0.0 3.0 0.00 0.00 0.00 95 1016.8
20260902091102 74 120 0.0 3.0 0.00 0.00 0.00 95 1016.7
20260902091002 74 120 0.0 3.0 0.00 0.00 0.00 95 1016.7
20260902090902 74 122 0.0 3.0 0.00 0.00 0.00 95 1016.7
20260902090802 74 121 0.0 3.0 0.00 0.00 0.00 95 1016.8
20260902090702 74 120 0.0 3.0 0.00 0.00 0.00 95 1016.7
20260902090623 74 125 1.0 3.0 0.00 0.00 0.00 95 1016.9
20260902090502 74 128 1.0 3.0 0.00 0.00 0.00 95 1016.8
20260902090403 74 130 0.0 3.0 0.00 0.00 0.00 95 1016.8
20260902090302 74 132 0.0 3.0 0.00 0.00 0.00 95 1016.8
20260902090202 74 132 1.0 2.0 0.00 0.00 0.00 95 1016.9
20260902090123 74 132 1.0 2.0 0.00 0.00 0.00 95 1017.0
20260902090002 74 132 1.0 2.0 0.00 0.00 0.00 95 1017.0
20260902085903 74 127 1.0 3.0 0.00 0.00 0.00 95 1016.8
20260902085824 74 127 1.0 3.0 0.00 0.00 0.00 95 1017.0
20260902085702 74 129 1.0 3.0 0.00 0.00 0.00 95 1017.0
20260902085603 74 125 1.0 3.0 0.00 0.00 0.00 95 1017.0
20260902085502 74 123 1.0 3.0 0.00 0.00 0.00 95 1017.1
20260902085423 74 123 1.0 3.0 0.00 0.00 0.00 95 1017.0
20260902085324 74 127 1.0 3.0 0.00 0.00 0.00 95 1016.9
20260902085202 74 125 1.0 3.0 0.00 0.00 0.00 95 1017.1
20260902085103 74 126 1.0 3.0 0.00 0.00 0.00 95 1017.0
20260902085002 74 126 1.0 3.0 0.00 0.00 0.00 95 1017.0
20260902084902 74 127 1.0 3.0 0.00 0.00 0.00 95 1017.0
20260902084803 74 128 1.0 3.0 0.00 0.00 0.00 95 1017.0
20260902084703 74 128 1.0 3.0 0.00 0.00 0.00 95 1017.0
20260902084603 74 127 1.0 3.0 0.00 0.00 0.00 95 1017.0
20260902084502 74 128 1.0 3.0 0.00 0.00 0.00 95 1017.0
20260902084424 74 128 1.0 3.0 0.00 0.00 0.00 95 1017.0
20260902084302 74 122 1.0 3.0 0.00 0.00 0.00 95 1017.0
20260902084202 74 119 0.0 3.0 0.00 0.00 0.00 95 1016.9
20260902084103 74 118 0.0 3.0 0.00 0.00 0.00 95 1016.9
20260902084002 74 118 0.0 3.0 0.00 0.00 0.00 95 1016.8
20260902083924 74 119 0.0 3.0 0.00 0.00 0.00 95 1016.9
20260902083803 74 116 0.0 2.0 0.00 0.00 0.00 95 1016.8
20260902083703 74 119 0.0 3.0 0.00 0.00 0.00 95 1016.9
20260902083602 74 120 0.0 3.0 0.00 0.00 0.00 95 1016.8
20260902083502 74 117 0.0 3.0 0.00 0.00 0.00 95 1016.9
20260902083403 74 118 0.0 3.0 0.00 0.00 0.00 95 1016.8
20260902083302 74 119 0.0 3.0 0.00 0.00 0.00 95 1016.9
20260902083223 74 125 0.0 3.0 0.00 0.00 0.00 95 1017.0
20260902083125 74 125 0.0 3.0 0.00 0.00 0.00 95 1016.9
20260902083002 74 125 0.0 3.0 0.00 0.00 0.00 95 1016.9
20260902082923 74 126 0.0 3.0 0.00 0.00 0.00 95 1016.7
20260902082802 74 122 0.0 3.0 0.00 0.00 0.00 95 1016.9
20260902082702 74 118 0.0 2.0 0.00 0.00 0.00 95 1016.7
20260902082602 74 118 0.0 2.0 0.00 0.00 0.00 95 1016.8
20260902082502 74 118 0.0 2.0 0.00 0.00 0.00 95 1016.8
20260902082402 74 119 0.0 2.0 0.00 0.00 0.00 95 1016.8
20260902082308 74 119 0.0 2.0 0.00 0.00 0.00 95 1016.8
20260902082203 74 119 0.0 2.0 0.00 0.00 0.00 95 1016.8
20260902082102 74 118 0.0 2.0 0.00 0.00 0.00 95 1016.8
20260902082002 74 121 0.0 3.0 0.00 0.00 0.00 95 1016.8
20260902081903 74 121 0.0 3.0 0.00 0.00 0.00 95 1017.0
20260902081823 74 123 0.0 3.0 0.00 0.00 0.00 95 1017.0
20260902081723 74 122 0.0 3.0 0.00 0.00 0.00 95 1017.0
20260902081603 74 122 0.0 3.0 0.00 0.00 0.00 95 1017.0
20260902081502 74 122 0.0 3.0 0.00 0.00 0.00 95 1016.8
20260902081402 74 121 0.0 3.0 0.00 0.00 0.00 95 1016.9
20260902081325 74 122 1.0 3.0 0.00 0.00 0.00 95 1016.7
20260902081203 74 120 1.0 3.0 0.00 0.00 0.00 95 1016.9
20260902081123 74 120 1.0 3.0 0.00 0.00 0.00 95 1016.9
20260902081025 74 121 1.0 3.0 0.00 0.00 0.00 95 1016.7
20260902080902 74 118 0.0 3.0 0.00 0.00 0.00 94 1016.8
20260902080802 74 116 0.0 3.0 0.00 0.00 0.00 94 1016.7
20260902080702 74 116 0.0 3.0 0.00 0.00 0.00 94 1016.7
20260902080603 74 116 0.0 3.0 0.00 0.00 0.00 94 1016.9
20260902080502 74 116 0.0 3.0 0.00 0.00 0.00 94 1016.8
20260902080402 74 117 0.0 3.0 0.00 0.00 0.00 94 1016.8
20260902080302 74 118 0.0 2.0 0.00 0.00 0.00 94 1017.0
20260902080203 74 115 0.0 2.0 0.00 0.00 0.00 94 1016.8
20260902080103 74 116 0.0 2.0 0.00 0.00 0.00 94 1016.7
20260902080002 74 117 0.0 2.0 0.00 0.00 0.00 94 1016.8
20260902075902 74 119 0.0 2.0 0.00 0.00 0.00 94 1016.7
20260902075802 74 119 0.0 2.0 0.00 0.00 0.00 94 1016.9
20260902075724 74 119 0.0 2.0 0.00 0.00 0.00 94 1016.8
20260902075602 74 119 0.0 2.0 0.00 0.00 0.00 94 1016.9
20260902075502 74 117 0.0 2.0 0.00 0.00 0.00 94 1016.5
20260902075402 74 116 0.0 1.0 0.00 0.00 0.00 94 1016.7
20260902075306 73 116 0.0 1.0 0.00 0.00 0.00 94 1016.5
20260902075203 73 116 0.0 1.0 0.00 0.00 0.00 94 1016.7
20260902075123 73 116 0.0 1.0 0.00 0.00 0.00 94 1016.8
20260902075002 73 114 0.0 1.0 0.00 0.00 0.00 94 1016.7
20260902074903 73 114 0.0 1.0 0.00 0.00 0.00 94 1016.7
20260902074802 73 114 0.0 1.0 0.00 0.00 0.00 94 1016.7
20260902074702 73 114 0.0 1.0 0.00 0.00 0.00 94 1016.8
20260902074602 73 114 0.0 1.0 0.00 0.00 0.00 94 1016.8
20260902074503 73 118 0.0 1.0 0.00 0.00 0.00 94 1016.6
20260902074402 73 0 0.0 0.0 0.00 0.00 0.00 94 1016.7
20260902074302 73 0 0.0 0.0 0.00 0.00 0.00 94 1016.9
20260902074202 73 0 0.0 0.0 0.00 0.00 0.00 94 1016.8
20260902074102 73 0 0.0 0.0 0.00 0.00 0.00 94 1016.8
20260902074003 73 0 0.0 0.0 0.00 0.00 0.00 94 1016.9
20260902073902 73 0 0.0 0.0 0.00 0.00 0.00 94 1016.7
20260902073803 73 0 0.0 0.0 0.00 0.00 0.00 94 1016.7
20260902073703 73 0 0.0 0.0 0.00 0.00 0.00 93 1016.7
20260902073602 73 0 0.0 0.0 0.00 0.00 0.00 93 1016.9
20260902073502 73 0 0.0 0.0 0.00 0.00 0.00 93 1016.8
20260902073403 73 0 0.0 0.0 0.00 0.00 0.00 93 1016.8
20260902073302 73 0 0.0 0.0 0.00 0.00 0.00 93 1016.9
20260902073202 73 0 0.0 0.0 0.00 0.00 0.00 93 1016.7
20260902073102 73 0 0.0 0.0 0.00 0.00 0.00 93 1016.7
20260902073002 73 0 0.0 0.0 0.00 0.00 0.00 93 1016.8
20260902072902 73 0 0.0 0.0 0.00 0.00 0.00 93 1016.7
20260902072802 73 0 0.0 0.0 0.00 0.00 0.00 93 1016.8
20260902072703 73 0 0.0 0.0 0.00 0.00 0.00 93 1016.8
20260902072623 73 0 0.0 0.0 0.00 0.00 0.00 93 1016.8
20260902072503 73 0 0.0 0.0 0.00 0.00 0.00 93 1017.0
20260902072402 73 0 0.0 0.0 0.00 0.00 0.00 93 1016.9
20260902072308 73 0 0.0 0.0 0.00 0.00 0.00 93 1017.0
20260902072203 73 0 0.0 0.0 0.00 0.00 0.00 93 1016.9
20260902072103 73 0 0.0 0.0 0.00 0.00 0.00 93 1016.8
20260902072023 73 0 0.0 0.0 0.00 0.00 0.00 93 1017.0
20260902071903 73 0 0.0 0.0 0.00 0.00 0.00 93 1016.9
20260902071802 73 0 0.0 0.0 0.00 0.00 0.00 93 1017.0
20260902071703 73 0 0.0 0.0 0.00 0.00 0.00 93 1016.8
20260902071602 73 0 0.0 0.0 0.00 0.00 0.00 93 1017.0
20260902071523 73 0 0.0 0.0 0.00 0.00 0.00 93 1017.0
20260902071403 73 0 0.0 0.0 0.00 0.00 0.00 93 1016.9
20260902071302 73 0 0.0 0.0 0.00 0.00 0.00 93 1016.9
20260902071224 73 0 0.0 0.0 0.00 0.00 0.00 93 1016.9
20260902071103 73 0 0.0 0.0 0.00 0.00 0.00 92 1016.9
20260902071023 73 0 0.0 0.0 0.00 0.00 0.00 92 1016.9
20260902070903 73 0 0.0 0.0 0.00 0.00 0.00 92 1016.8
20260902070823 73 0 0.0 0.0 0.00 0.00 0.00 92 1017.0
20260902070703 73 0 0.0 0.0 0.00 0.00 0.00 92 1016.9
20260902070603 73 127 0.0 2.0 0.00 0.00 0.00 92 1017.1
20260902070502 73 130 0.0 2.0 0.00 0.00 0.00 92 1017.0
20260902070403 73 133 0.0 2.0 0.00 0.00 0.00 92 1016.9
20260902070303 73 133 0.0 2.0 0.00 0.00 0.00 92 1016.8
20260902070202 73 131 0.0 2.0 0.00 0.00 0.00 92 1016.9
20260902070005 73 129 1.0 2.0 0.00 0.00 0.00 92 1017.0
20260902065902 73 125 1.0 2.0 0.00 0.00 0.00 92 1017.0
20260902065803 73 125 1.0 2.0 0.00 0.00 0.00 92 1017.1
20260902065703 73 125 1.0 2.0 0.00 0.00 0.00 92 1016.9
20260902065602 73 124 1.0 2.0 0.00 0.00 0.00 92 1016.9
20260902065524 73 122 1.0 2.0 0.00 0.00 0.00 92 1016.9
20260902065424 73 119 1.0 2.0 0.00 0.00 0.00 92 1016.9
20260902065306 73 119 1.0 2.0 0.00 0.00 0.00 92 1016.9
20260902065202 73 120 1.0 2.0 0.00 0.00 0.00 92 1016.7
20260902065124 73 121 1.0 2.0 0.00 0.00 0.00 92 1016.9
20260902065003 73 119 1.0 2.0 0.00 0.00 0.00 92 1016.8
20260902064902 73 121 0.0 2.0 0.00 0.00 0.00 93 1016.9
20260902064803 73 121 0.0 2.0 0.00 0.00 0.00 93 1016.9
20260902064702 73 121 0.0 2.0 0.00 0.00 0.00 93 1017.0
20260902064623 73 122 0.0 2.0 0.00 0.00 0.00 93 1017.1
20260902064502 73 125 0.0 2.0 0.00 0.00 0.00 93 1017.1
20260902064402 73 122 0.0 2.0 0.00 0.00 0.00 93 1017.0
20260902064303 73 123 0.0 2.0 0.00 0.00 0.00 93 1017.1
20260902064202 73 118 0.0 2.0 0.00 0.00 0.00 93 1017.0
20260902064102 73 118 0.0 2.0 0.00 0.00 0.00 94 1017.2
20260902064023 73 118 0.0 2.0 0.00 0.00 0.00 94 1017.2
20260902063904 72 118 0.0 2.0 0.00 0.00 0.00 94 1017.2
20260902063803 72 0 0.0 0.0 0.00 0.00 0.00 94 1017.3
20260902063703 72 0 0.0 0.0 0.00 0.00 0.00 93 1017.1
20260902063603 72 0 0.0 0.0 0.00 0.00 0.00 93 1017.1
20260902063502 73 0 0.0 0.0 0.00 0.00 0.00 93 1017.1
20260902063423 73 0 0.0 0.0 0.00 0.00 0.00 93 1017.2
20260902063302 73 0 0.0 0.0 0.00 0.00 0.00 93 1017.1
20260902063202 72 0 0.0 0.0 0.00 0.00 0.00 94 1017.2
20260902063102 72 0 0.0 0.0 0.00 0.00 0.00 94 1017.1
20260902063003 72 0 0.0 0.0 0.00 0.00 0.00 94 1017.2
20260902062902 72 0 0.0 0.0 0.00 0.00 0.00 94 1017.1
20260902062823 72 0 0.0 0.0 0.00 0.00 0.00 94 1017.2
20260902062702 73 0 0.0 0.0 0.00 0.00 0.00 93 1017.1
20260902062602 73 0 0.0 0.0 0.00 0.00 0.00 93 1017.2
20260902062524 73 0 0.0 0.0 0.00 0.00 0.00 94 1017.1
20260902062402 73 0 0.0 0.0 0.00 0.00 0.00 94 1017.2
20260902062305 73 0 0.0 0.0 0.00 0.00 0.00 94 1017.2
20260902062203 73 0 0.0 0.0 0.00 0.00 0.00 94 1017.0
20260902062104 73 0 0.0 0.0 0.00 0.00 0.00 94 1017.2
20260902062023 73 0 0.0 0.0 0.00 0.00 0.00 94 1017.3
20260902061925 72 0 0.0 0.0 0.00 0.00 0.00 94 1017.2
20260902061802 72 0 0.0 0.0 0.00 0.00 0.00 94 1017.3
20260902061702 72 0 0.0 0.0 0.00 0.00 0.00 94 1017.1
20260902061602 72 0 0.0 0.0 0.00 0.00 0.00 94 1017.2
20260902061523 72 0 0.0 0.0 0.00 0.00 0.00 94 1017.2
20260902061424 72 0 0.0 0.0 0.00 0.00 0.00 94 1017.2
20260902061302 72 0 0.0 0.0 0.00 0.00 0.00 94 1017.2
20260902061202 72 0 0.0 0.0 0.00 0.00 0.00 94 1017.1
20260902061123 72 0 0.0 0.0 0.00 0.00 0.00 94 1017.2
20260902061023 72 0 0.0 0.0 0.00 0.00 0.00 94 1017.2
20260902060902 72 0 0.0 0.0 0.00 0.00 0.00 94 1017.2
20260902060802 72 0 0.0 0.0 0.00 0.00 0.00 94 1017.4
20260902060723 72 0 0.0 0.0 0.00 0.00 0.00 94 1017.4
20260902060624 72 0 0.0 0.0 0.00 0.00 0.00 94 1017.2
20260902060502 72 0 0.0 0.0 0.00 0.00 0.00 94 1017.2
20260902060402 72 0 0.0 0.0 0.00 0.00 0.00 94 1017.3
20260902060302 72 0 0.0 0.0 0.00 0.00 0.00 94 1017.4
20260902060202 72 0 0.0 0.0 0.00 0.00 0.00 94 1017.1
20260902060002 72 0 0.0 0.0 0.00 0.00 0.00 94 1017.1
20260902055902 72 0 0.0 0.0 0.00 0.00 0.00 94 1017.1
20260902055802 72 0 0.0 0.0 0.00 0.00 0.00 94 1017.0
20260902055702 72 0 0.0 0.0 0.00 0.00 0.00 94 1017.1
20260902055602 72 0 0.0 0.0 0.00 0.00 0.00 94 1017.0
20260902055503 72 0 0.0 0.0 0.00 0.00 0.00 94 1017.2
20260902055402 72 0 0.0 0.0 0.00 0.00 0.00 94 1017.3
20260902055306 72 0 0.0 0.0 0.00 0.00 0.00 94 1017.2
20260902055224 72 0 0.0 0.0 0.00 0.00 0.00 94 1017.3
20260902055102 72 0 0.0 0.0 0.00 0.00 0.00 94 1017.1
20260902055003 72 0 0.0 0.0 0.00 0.00 0.00 93 1017.2
20260902054902 72 0 0.0 0.0 0.00 0.00 0.00 94 1017.2
20260902054802 72 0 0.0 0.0 0.00 0.00 0.00 93 1017.2
20260902054703 72 0 0.0 0.0 0.00 0.00 0.00 93 1017.2
20260902054602 72 0 0.0 0.0 0.00 0.00 0.00 93 1017.1
20260902054502 72 0 0.0 0.0 0.00 0.00 0.00 93 1017.1
20260902054403 72 0 0.0 0.0 0.00 0.00 0.00 93 1017.3
20260902054303 72 0 0.0 0.0 0.00 0.00 0.00 93 1017.3
20260902054203 72 0 0.0 0.0 0.00 0.00 0.00 93 1017.1
20260902054103 72 0 0.0 0.0 0.00 0.00 0.00 93 1017.1
20260902054002 72 0 0.0 0.0 0.00 0.00 0.00 93 1017.1
20260902053902 72 0 0.0 0.0 0.00 0.00 0.00 93 1017.2
20260902053802 72 0 0.0 0.0 0.00 0.00 0.00 93 1016.9
20260902053703 72 0 0.0 0.0 0.00 0.00 0.00 93 1017.0
20260902053604 72 0 0.0 0.0 0.00 0.00 0.00 93 1017.0
20260902053502 72 0 0.0 0.0 0.00 0.00 0.00 93 1017.0
20260902053402 72 0 0.0 0.0 0.00 0.00 0.00 93 1017.1
20260902053302 72 0 0.0 0.0 0.00 0.00 0.00 93 1017.1
20260902053223 72 0 0.0 0.0 0.00 0.00 0.00 93 1017.1
20260902053102 72 0 0.0 0.0 0.00 0.00 0.00 93 1017.2
20260902053024 72 0 0.0 0.0 0.00 0.00 0.00 93 1017.1
20260902052903 72 0 0.0 0.0 0.00 0.00 0.00 93 1017.0
20260902052803 72 0 0.0 0.0 0.00 0.00 0.00 93 1017.1
20260902052702 72 0 0.0 0.0 0.00 0.00 0.00 93 1017.1
20260902052603 72 0 0.0 0.0 0.00 0.00 0.00 93 1017.1
20260902052523 72 0 0.0 0.0 0.00 0.00 0.00 93 1017.1
20260902052403 72 0 0.0 0.0 0.00 0.00 0.00 93 1016.9
20260902052306 72 0 0.0 0.0 0.00 0.00 0.00 93 1017.0
20260902052203 72 0 0.0 0.0 0.00 0.00 0.00 93 1017.1
20260902052102 72 0 0.0 0.0 0.00 0.00 0.00 93 1017.0
20260902052002 72 0 0.0 0.0 0.00 0.00 0.00 93 1017.1
20260902051902 72 0 0.0 0.0 0.00 0.00 0.00 93 1017.0
20260902051803 72 0 0.0 0.0 0.00 0.00 0.00 93 1017.0
20260902051702 72 0 0.0 0.0 0.00 0.00 0.00 93 1017.2
20260902051603 72 0 0.0 0.0 0.00 0.00 0.00 93 1017.2
20260902051502 73 0 0.0 0.0 0.00 0.00 0.00 93 1017.1
20260902051403 73 0 0.0 0.0 0.00 0.00 0.00 93 1017.2
20260902051303 73 0 0.0 0.0 0.00 0.00 0.00 93 1017.0
20260902051225 73 0 0.0 0.0 0.00 0.00 0.00 93 1017.1
20260902051123 72 0 0.0 0.0 0.00 0.00 0.00 93 1017.1
20260902051002 72 0 0.0 0.0 0.00 0.00 0.00 93 1017.0
20260902050903 72 0 0.0 0.0 0.00 0.00 0.00 93 1017.0
20260902050802 72 0 0.0 0.0 0.00 0.00 0.00 93 1017.0
20260902050703 72 0 0.0 0.0 0.00 0.00 0.00 93 1017.0
20260902050602 72 0 0.0 0.0 0.00 0.00 0.00 93 1017.1
20260902050504 72 0 0.0 0.0 0.00 0.00 0.00 93 1016.9
20260902050423 72 0 0.0 0.0 0.00 0.00 0.00 93 1016.9
20260902050303 72 0 0.0 0.0 0.00 0.00 0.00 92 1017.0
20260902050202 72 0 0.0 0.0 0.00 0.00 0.00 92 1017.1
20260902050024 72 0 0.0 0.0 0.00 0.00 0.00 92 1016.8
20260902045902 72 0 0.0 0.0 0.00 0.00 0.00 92 1016.9
20260902045824 72 0 0.0 0.0 0.00 0.00 0.00 92 1016.9
20260902045702 72 0 0.0 0.0 0.00 0.00 0.00 92 1017.0
20260902045603 72 0 0.0 0.0 0.00 0.00 0.00 92 1017.0
20260902045502 72 0 0.0 0.0 0.00 0.00 0.00 92 1017.0
20260902045424 72 0 0.0 0.0 0.00 0.00 0.00 92 1016.9
20260902045306 72 0 0.0 0.0 0.00 0.00 0.00 92 1016.9
20260902045224 72 0 0.0 0.0 0.00 0.00 0.00 92 1016.9
20260902045123 72 0 0.0 0.0 0.00 0.00 0.00 92 1017.0
20260902045002 73 0 0.0 0.0 0.00 0.00 0.00 92 1017.0
20260902044902 73 0 0.0 0.0 0.00 0.00 0.00 92 1016.9
20260902044802 73 0 0.0 0.0 0.00 0.00 0.00 92 1017.0
20260902044702 73 0 0.0 0.0 0.00 0.00 0.00 92 1017.0
20260902044602 73 0 0.0 0.0 0.00 0.00 0.00 92 1017.0
20260902044524 73 0 0.0 0.0 0.00 0.00 0.00 92 1016.9
20260902044402 73 0 0.0 0.0 0.00 0.00 0.00 92 1016.9
20260902044302 73 0 0.0 0.0 0.00 0.00 0.00 91 1016.8
20260902044203 73 0 0.0 0.0 0.00 0.00 0.00 92 1016.7
20260902044103 73 0 0.0 0.0 0.00 0.00 0.00 92 1016.9
20260902044002 73 0 0.0 0.0 0.00 0.00 0.00 92 1016.8
20260902043903 73 0 0.0 0.0 0.00 0.00 0.00 92 1016.9
20260902043803 73 0 0.0 0.0 0.00 0.00 0.00 92 1016.8
20260902043702 73 0 0.0 0.0 0.00 0.00 0.00 92 1016.9
20260902043604 73 0 0.0 0.0 0.00 0.00 0.00 92 1016.8
20260902043502 73 0 0.0 0.0 0.00 0.00 0.00 91 1016.8
20260902043403 73 0 0.0 0.0 0.00 0.00 0.00 91 1016.8
20260902043303 73 0 0.0 0.0 0.00 0.00 0.00 91 1016.8
20260902043202 73 0 0.0 0.0 0.00 0.00 0.00 91 1016.8
20260902043103 73 0 0.0 0.0 0.00 0.00 0.00 91 1016.8
20260902043002 73 0 0.0 0.0 0.00 0.00 0.00 91 1016.8
20260902042903 73 0 0.0 0.0 0.00 0.00 0.00 91 1016.7
20260902042823 73 0 0.0 0.0 0.00 0.00 0.00 91 1016.9
20260902042702 73 0 0.0 0.0 0.00 0.00 0.00 91 1016.7
20260902042604 73 0 0.0 0.0 0.00 0.00 0.00 91 1016.8
20260902042503 73 0 0.0 0.0 0.00 0.00 0.00 91 1016.8
20260902042402 73 123 0.0 1.0 0.00 0.00 0.00 91 1016.7
20260902042308 73 123 0.0 1.0 0.00 0.00 0.00 91 1016.8
20260902042204 73 123 0.0 1.0 0.00 0.00 0.00 91 1016.9
20260902042102 73 123 0.0 1.0 0.00 0.00 0.00 91 1016.7
20260902042003 73 123 0.0 1.0 0.00 0.00 0.00 91 1016.9
20260902041902 73 123 0.0 1.0 0.00 0.00 0.00 91 1016.7
20260902041823 73 123 0.0 1.0 0.00 0.00 0.00 91 1016.7
20260902041703 74 123 0.0 1.0 0.00 0.00 0.00 91 1016.5
20260902041602 74 123 0.0 1.0 0.00 0.00 0.00 91 1016.7
20260902041502 74 123 0.0 1.0 0.00 0.00 0.00 91 1016.7
20260902041403 74 0 0.0 0.0 0.00 0.00 0.00 90 1016.8
20260902041303 74 0 0.0 0.0 0.00 0.00 0.00 90 1016.8
20260902041204 74 0 0.0 0.0 0.00 0.00 0.00 90 1016.9
20260902041103 74 0 0.0 0.0 0.00 0.00 0.00 90 1016.8
20260902041002 74 0 0.0 0.0 0.00 0.00 0.00 90 1016.8
20260902040903 74 0 0.0 0.0 0.00 0.00 0.00 90 1016.7
20260902040802 74 0 0.0 0.0 0.00 0.00 0.00 90 1016.7
20260902040702 74 0 0.0 0.0 0.00 0.00 0.00 90 1016.7
20260902040603 74 0 0.0 0.0 0.00 0.00 0.00 90 1016.8
20260902040503 74 0 0.0 0.0 0.00 0.00 0.00 90 1016.8
20260902040402 74 0 0.0 0.0 0.00 0.00 0.00 90 1016.8
20260902040303 74 0 0.0 0.0 0.00 0.00 0.00 90 1017.0
20260902040224 74 0 0.0 0.0 0.00 0.00 0.00 90 1016.9
20260902040103 74 118 0.0 1.0 0.00 0.00 0.00 90 1016.8
20260902040004 74 126 0.0 2.0 0.00 0.00 0.00 90 1016.7
20260902035902 74 133 0.0 2.0 0.00 0.00 0.00 89 1016.7
20260902035802 74 133 0.0 2.0 0.00 0.00 0.00 89 1016.8
20260902035702 75 133 0.0 2.0 0.00 0.00 0.00 89 1016.9
20260902035602 75 133 0.0 2.0 0.00 0.00 0.00 88 1016.8
20260902035502 75 133 0.0 2.0 0.00 0.00 0.00 88 1016.7
20260902035403 75 133 0.0 2.0 0.00 0.00 0.00 88 1016.8
20260902035305 75 133 0.0 2.0 0.00 0.00 0.00 88 1016.9
20260902035203 75 130 0.0 2.0 0.00 0.00 0.00 88 1016.7
20260902035103 75 133 0.0 2.0 0.00 0.00 0.00 88 1016.8
20260902035002 75 132 0.0 2.0 0.00 0.00 0.00 89 1016.7
20260902034902 75 120 0.0 1.0 0.00 0.00 0.00 89 1016.7
20260902034803 75 116 0.0 1.0 0.00 0.00 0.00 89 1016.9
20260902034703 75 116 0.0 1.0 0.00 0.00 0.00 89 1016.9
20260902034602 75 116 0.0 1.0 0.00 0.00 0.00 88 1016.6
20260902034502 75 115 0.0 1.0 0.00 0.00 0.00 88 1016.8
20260902034403 75 115 0.0 1.0 0.00 0.00 0.00 88 1016.9
20260902034302 75 116 0.0 1.0 0.00 0.00 0.00 88 1016.8
20260902034203 74 116 0.0 1.0 0.00 0.00 0.00 88 1016.9
20260902034103 74 114 0.0 1.0 0.00 0.00 0.00 89 1016.7
20260902034025 74 114 0.0 1.0 0.00 0.00 0.00 89 1016.8
20260902033903 74 120 0.0 1.0 0.00 0.00 0.00 89 1016.8
20260902033802 74 124 0.0 3.0 0.00 0.00 0.00 88 1016.8
20260902033702 74 126 1.0 3.0 0.00 0.00 0.00 88 1016.7
20260902033603 74 126 1.0 3.0 0.00 0.00 0.00 88 1016.8
20260902033503 74 128 0.0 3.0 0.00 0.00 0.00 88 1016.8
20260902033402 74 128 0.0 3.0 0.00 0.00 0.00 88 1016.8
20260902033302 75 129 0.0 3.0 0.00 0.00 0.00 88 1016.8
20260902033204 75 128 1.0 3.0 0.00 0.00 0.00 88 1017.0
20260902033102 74 129 1.0 3.0 0.00 0.00 0.00 88 1016.7
20260902033002 74 130 1.0 3.0 0.00 0.00 0.00 88 1016.8
20260902032904 74 129 0.0 3.0 0.00 0.00 0.00 88 1016.9
20260902032803 74 129 0.0 3.0 0.00 0.00 0.00 88 1016.8
20260902032705 74 127 0.0 1.0 0.00 0.00 0.00 88 1016.7
20260902032602 74 127 0.0 1.0 0.00 0.00 0.00 88 1016.7
20260902032503 74 127 0.0 1.0 0.00 0.00 0.00 88 1016.8
20260902032402 74 131 0.0 1.0 0.00 0.00 0.00 88 1016.8
20260902032305 74 129 0.0 1.0 0.00 0.00 0.00 88 1016.7
20260902032202 74 136 0.0 1.0 0.00 0.00 0.00 88 1016.8
20260902032123 74 0 0.0 0.0 0.00 0.00 0.00 88 1016.6
20260902032003 74 0 0.0 0.0 0.00 0.00 0.00 88 1016.6
20260902031902 74 0 0.0 0.0 0.00 0.00 0.00 88 1016.6
20260902031802 74 0 0.0 0.0 0.00 0.00 0.00 88 1016.7
20260902031723 74 0 0.0 0.0 0.00 0.00 0.00 88 1016.5
20260902031602 74 0 0.0 0.0 0.00 0.00 0.00 88 1016.6
20260902031502 74 0 0.0 0.0 0.00 0.00 0.00 88 1016.7
20260902031403 74 0 0.0 0.0 0.00 0.00 0.00 88 1016.7
20260902031302 74 0 0.0 0.0 0.00 0.00 0.00 88 1016.6
20260902031203 74 0 0.0 0.0 0.00 0.00 0.00 88 1016.6
20260902031103 74 0 0.0 0.0 0.00 0.00 0.00 88 1016.7
20260902031002 74 0 0.0 0.0 0.00 0.00 0.00 88 1016.6
20260902030903 74 0 0.0 0.0 0.00 0.00 0.00 87 1016.6
20260902030803 74 0 0.0 0.0 0.00 0.00 0.00 87 1016.8
20260902030705 74 0 0.0 0.0 0.00 0.00 0.00 87 1016.7
20260902030603 74 0 0.0 0.0 0.00 0.00 0.00 87 1016.5
20260902030525 74 0 0.0 0.0 0.00 0.00 0.00 87 1016.7
20260902030402 74 0 0.0 0.0 0.00 0.00 0.00 87 1016.7
20260902030302 74 0 0.0 0.0 0.00 0.00 0.00 87 1016.7
20260902030203 74 0 0.0 0.0 0.00 0.00 0.00 87 1016.7
20260902030002 74 0 0.0 0.0 0.00 0.00 0.00 88 1016.6
20260902025903 74 0 0.0 0.0 0.00 0.00 0.00 88 1016.7
20260902025823 74 0 0.0 0.0 0.00 0.00 0.00 87 1016.8
20260902025702 74 0 0.0 0.0 0.00 0.00 0.00 87 1016.7
20260902025623 74 0 0.0 0.0 0.00 0.00 0.00 87 1016.8
20260902025504 74 0 0.0 0.0 0.00 0.00 0.00 87 1016.8
20260902025402 74 0 0.0 0.0 0.00 0.00 0.00 87 1016.7
20260902025306 74 0 0.0 0.0 0.00 0.00 0.00 87 1016.8
20260902025202 74 117 0.0 1.0 0.00 0.00 0.00 87 1016.4
20260902025102 74 118 0.0 1.0 0.00 0.00 0.00 87 1016.7
20260902025002 74 118 0.0 1.0 0.00 0.00 0.00 87 1016.7
20260902024903 74 118 0.0 1.0 0.00 0.00 0.00 87 1016.6
20260902024803 74 118 0.0 1.0 0.00 0.00 0.00 87 1016.5
20260902024702 74 118 0.0 1.0 0.00 0.00 0.00 87 1016.6
20260902024623 74 118 0.0 1.0 0.00 0.00 0.00 87 1016.8
20260902024502 74 118 0.0 1.0 0.00 0.00 0.00 87 1016.5
20260902024402 74 118 0.0 1.0 0.00 0.00 0.00 87 1016.6
20260902024304 75 118 0.0 1.0 0.00 0.00 0.00 87 1016.5
20260902024202 75 118 0.0 1.0 0.00 0.00 0.00 87 1016.6
20260902024103 75 0 0.0 0.0 0.00 0.00 0.00 87 1016.6
20260902024002 75 0 0.0 0.0 0.00 0.00 0.00 87 1016.6
20260902023903 75 0 0.0 0.0 0.00 0.00 0.00 86 1016.6
20260902023823 75 0 0.0 0.0 0.00 0.00 0.00 86 1016.6
20260902023703 75 0 0.0 0.0 0.00 0.00 0.00 86 1016.6
20260902023602 75 0 0.0 0.0 0.00 0.00 0.00 87 1016.5
20260902023503 75 0 0.0 0.0 0.00 0.00 0.00 86 1016.7
20260902023403 75 0 0.0 0.0 0.00 0.00 0.00 86 1016.6
20260902023323 75 0 0.0 0.0 0.00 0.00 0.00 87 1016.6
20260902023202 74 0 0.0 0.0 0.00 0.00 0.00 87 1016.6
20260902023102 74 0 0.0 0.0 0.00 0.00 0.00 87 1016.5
20260902023003 74 0 0.0 0.0 0.00 0.00 0.00 87 1016.6
20260902022902 74 0 0.0 0.0 0.00 0.00 0.00 87 1016.4
20260902022803 74 0 0.0 0.0 0.00 0.00 0.00 87 1016.4
20260902022703 74 0 0.0 0.0 0.00 0.00 0.00 87 1016.5
20260902022602 74 0 0.0 0.0 0.00 0.00 0.00 87 1016.4
20260902022523 74 0 0.0 0.0 0.00 0.00 0.00 88 1016.5
20260902022404 74 0 0.0 0.0 0.00 0.00 0.00 87 1016.3
20260902022323 74 0 0.0 0.0 0.00 0.00 0.00 87 1016.4
20260902022223 74 0 0.0 0.0 0.00 0.00 0.00 87 1016.3
20260902022103 75 0 0.0 0.0 0.00 0.00 0.00 87 1016.5
20260902022002 75 0 0.0 0.0 0.00 0.00 0.00 87 1016.4
20260902021902 75 0 0.0 0.0 0.00 0.00 0.00 87 1016.5
20260902021802 75 0 0.0 0.0 0.00 0.00 0.00 87 1016.4
20260902021702 75 0 0.0 0.0 0.00 0.00 0.00 87 1016.4
20260902021603 75 113 0.0 1.0 0.00 0.00 0.00 87 1016.4